Time,TemperatureF,DewpointF,PressureIn,WindDirection,WindDirectionDegrees,WindSpeedMPH,WindSpeedGustMPH,Humidity,HourlyPrecipIn,Conditions,Clouds,dailyrainin,SoftwareType,DateUTC
2013-04-11 00:00:00,73.3,56.2,29.86,SW,216,0.0,9.0,55,0.00,,,0.00,Wunderground v.1.15,2013-04-11 04:00:00,
2013-04-11 00:01:00,73.3,55.6,29.86,SW,216,0.0,9.0,54,0.00,,,0.00,Wunderground v.1.15,2013-04-11 04:01:00,
2013-04-11 00:03:00,73.3,55.6,29.86,SW,216,0.0,9.0,54,0.00,,,0.00,Wunderground v.1.15,2013-04-11 04:03:00,
2013-04-11 00:04:00,73.3,55.6,29.86,SW,216,0.0,9.0,54,0.00,,,0.00,Wunderground v.1.15,2013-04-11 04:04:00,
2013-04-11 00:06:00,73.3,55.6,29.86,SW,216,0.0,9.0,54,0.00,,,0.00,Wunderground v.1.15,2013-04-11 04:06:00,
2013-04-11 00:09:00,73.5,55.8,29.86,SW,216,0.0,9.0,54,0.00,,,0.00,Wunderground v.1.15,2013-04-11 04:09:00,
2013-04-11 00:11:00,73.5,55.8,29.86,SW,216,1.0,9.0,54,0.00,,,0.00,Wunderground v.1.15,2013-04-11 04:11:00,
2013-04-11 00:15:00,73.3,55.6,29.86,SW,219,1.0,9.0,54,0.00,,,0.00,Wunderground v.1.15,2013-04-11 04:15:00,
2013-04-11 00:16:00,73.2,55.6,29.86,SSW,209,1.0,9.0,54,0.00,,,0.00,Wunderground v.1.15,2013-04-11 04:16:00,
2013-04-11 00:19:00,73.1,55.5,29.86,SW,219,1.0,9.0,54,0.00,,,0.00,Wunderground v.1.15,2013-04-11 04:19:00,
2013-04-11 00:22:00,73.0,55.4,29.87,WSW,242,2.0,9.0,54,0.00,,,0.00,Wunderground v.1.15,2013-04-11 04:22:00,
2013-04-11 00:24:00,72.9,55.8,29.86,SW,230,2.0,9.0,55,0.00,,,0.00,Wunderground v.1.15,2013-04-11 04:24:00,
2013-04-11 00:28:00,72.5,55.4,29.86,SSW,198,2.0,9.0,55,0.00,,,0.00,Wunderground v.1.15,2013-04-11 04:28:00,
2013-04-11 00:29:00,72.4,55.8,29.86,SSW,195,2.0,9.0,56,0.00,,,0.00,Wunderground v.1.15,2013-04-11 04:29:00,
2013-04-11 00:30:00,72.4,55.8,29.86,South,186,2.0,9.0,56,0.00,,,0.00,Wunderground v.1.15,2013-04-11 04:30:00,
2013-04-11 00:34:00,72.0,55.9,29.86,SSW,197,2.0,9.0,57,0.00,,,0.00,Wunderground v.1.15,2013-04-11 04:34:00,
2013-04-11 00:36:00,71.7,55.7,29.86,SSW,196,3.0,9.0,57,0.00,,,0.00,Wunderground v.1.15,2013-04-11 04:36:00,
2013-04-11 00:39:00,71.5,55.9,29.86,South,186,3.0,9.0,58,0.00,,,0.00,Wunderground v.1.15,2013-04-11 04:39:00,
2013-04-11 00:41:00,71.2,55.7,29.86,SW,220,3.0,9.0,58,0.00,,,0.00,Wunderground v.1.15,2013-04-11 04:41:00,
2013-04-11 00:44:00,70.9,55.9,29.86,SW,222,2.0,9.0,59,0.00,,,0.00,Wunderground v.1.15,2013-04-11 04:44:00,
2013-04-11 00:47:00,70.7,55.7,29.87,SW,216,2.0,9.0,59,0.00,,,0.00,Wunderground v.1.15,2013-04-11 04:47:00,
2013-04-11 00:51:00,70.4,55.8,29.87,SW,226,2.0,3.0,60,0.00,,,0.00,Wunderground v.1.15,2013-04-11 04:51:00,
2013-04-11 00:52:00,70.3,55.8,29.87,SW,227,2.0,9.0,60,0.00,,,0.00,Wunderground v.1.15,2013-04-11 04:52:00,
2013-04-11 00:55:00,70.1,55.6,29.87,WSW,243,2.0,9.0,60,0.00,,,0.00,Wunderground v.1.15,2013-04-11 04:55:00,
2013-04-11 00:56:00,70.0,55.9,29.87,WSW,242,2.0,9.0,61,0.00,,,0.00,Wunderground v.1.15,2013-04-11 04:56:00,
2013-04-11 00:57:00,70.0,55.9,29.87,SW,215,2.0,9.0,61,0.00,,,0.00,Wunderground v.1.15,2013-04-11 04:57:00,
2013-04-11 01:01:00,70.1,55.6,29.87,WSW,244,2.0,9.0,60,0.00,,,0.00,Wunderground v.1.15,2013-04-11 05:01:00,
2013-04-11 01:02:00,70.2,55.7,29.87,WSW,253,2.0,9.0,60,0.00,,,0.00,Wunderground v.1.15,2013-04-11 05:02:00,
2013-04-11 01:03:00,70.4,55.8,29.87,WSW,254,2.0,9.0,60,0.00,,,0.00,Wunderground v.1.15,2013-04-11 05:03:00,
2013-04-11 01:04:00,70.5,55.9,29.87,SW,234,3.0,9.0,60,0.00,,,0.00,Wunderground v.1.15,2013-04-11 05:04:00,
2013-04-11 01:08:00,70.8,55.8,29.86,WSW,246,4.0,9.0,59,0.00,,,0.00,Wunderground v.1.15,2013-04-11 05:08:00,
2013-04-11 01:09:00,70.8,55.8,29.86,WSW,254,4.0,9.0,59,0.00,,,0.00,Wunderground v.1.15,2013-04-11 05:09:00,
2013-04-11 01:11:00,70.8,55.8,29.86,WSW,253,4.0,9.0,59,0.00,,,0.00,Wunderground v.1.15,2013-04-11 05:11:00,
2013-04-11 01:12:00,70.8,55.8,29.86,WSW,242,4.0,9.0,59,0.00,,,0.00,Wunderground v.1.15,2013-04-11 05:12:00,
2013-04-11 01:15:00,70.8,55.8,29.86,West,269,3.0,9.0,59,0.00,,,0.00,Wunderground v.1.15,2013-04-11 05:15:00,
2013-04-11 01:17:00,70.9,55.9,29.87,SW,236,3.0,9.0,59,0.00,,,0.00,Wunderground v.1.15,2013-04-11 05:17:00,
2013-04-11 01:20:00,70.9,55.9,29.87,West,259,3.0,3.0,59,0.00,,,0.00,Wunderground v.1.15,2013-04-11 05:20:00,
2013-04-11 01:21:00,70.9,55.9,29.87,WSW,252,3.0,9.0,59,0.00,,,0.00,Wunderground v.1.15,2013-04-11 05:21:00,
2013-04-11 01:26:00,70.9,55.9,29.87,WSW,246,3.0,9.0,59,0.00,,,0.00,Wunderground v.1.15,2013-04-11 05:26:00,
2013-04-11 01:27:00,70.9,55.9,29.87,WSW,243,3.0,9.0,59,0.00,,,0.00,Wunderground v.1.15,2013-04-11 05:27:00,
2013-04-11 01:29:00,70.7,55.7,29.87,WSW,242,3.0,9.0,59,0.00,,,0.00,Wunderground v.1.15,2013-04-11 05:29:00,
2013-04-11 01:30:00,70.6,55.6,29.87,SW,234,3.0,3.0,59,0.00,,,0.00,Wunderground v.1.15,2013-04-11 05:30:00,
2013-04-11 01:33:00,70.3,55.8,29.87,WSW,246,2.0,9.0,60,0.00,,,0.00,Wunderground v.1.15,2013-04-11 05:33:00,
2013-04-11 01:35:00,70.2,55.7,29.86,SW,223,2.0,9.0,60,0.00,,,0.00,Wunderground v.1.15,2013-04-11 05:35:00,
2013-04-11 01:36:00,70.1,55.6,29.87,SW,223,1.0,9.0,60,0.00,,,0.00,Wunderground v.1.15,2013-04-11 05:36:00,
2013-04-11 01:40:00,69.9,55.4,29.87,SW,229,1.0,9.0,60,0.00,,,0.00,Wunderground v.1.15,2013-04-11 05:40:00,
2013-04-11 01:41:00,69.9,55.4,29.87,WSW,239,1.0,9.0,60,0.00,,,0.00,Wunderground v.1.15,2013-04-11 05:41:00,
2013-04-11 01:42:00,69.9,55.8,29.87,WSW,238,1.0,9.0,61,0.00,,,0.00,Wunderground v.1.15,2013-04-11 05:42:00,
2013-04-11 01:46:00,69.9,55.8,29.87,SW,228,0.0,9.0,61,0.00,,,0.00,Wunderground v.1.15,2013-04-11 05:46:00,
2013-04-11 01:47:00,69.9,55.4,29.87,SW,228,0.0,9.0,60,0.00,,,0.00,Wunderground v.1.15,2013-04-11 05:47:00,
2013-04-11 01:48:00,69.9,55.4,29.87,SW,229,0.0,9.0,60,0.00,,,0.00,Wunderground v.1.15,2013-04-11 05:48:00,
2013-04-11 01:50:00,69.9,55.4,29.87,SW,232,0.0,9.0,60,0.00,,,0.00,Wunderground v.1.15,2013-04-11 05:50:00,
2013-04-11 01:52:00,69.9,55.4,29.87,SW,225,0.0,9.0,60,0.00,,,0.00,Wunderground v.1.15,2013-04-11 05:52:00,
2013-04-11 01:53:00,69.9,55.4,29.87,SW,225,0.0,9.0,60,0.00,,,0.00,Wunderground v.1.15,2013-04-11 05:53:00,
2013-04-11 01:54:00,69.9,55.4,29.87,SW,225,0.0,9.0,60,0.00,,,0.00,Wunderground v.1.15,2013-04-11 05:54:00,
2013-04-11 01:55:00,69.9,55.4,29.87,SW,235,0.0,9.0,60,0.00,,,0.00,Wunderground v.1.15,2013-04-11 05:55:00,
2013-04-11 01:59:00,70.0,55.5,29.87,SSW,213,0.0,9.0,60,0.00,,,0.00,Wunderground v.1.15,2013-04-11 05:59:00,
2013-04-11 02:01:00,70.0,55.5,29.87,SW,227,0.0,9.0,60,0.00,,,0.00,Wunderground v.1.15,2013-04-11 06:01:00,
2013-04-11 02:05:00,69.9,55.4,29.87,WSW,240,0.0,9.0,60,0.00,,,0.00,Wunderground v.1.15,2013-04-11 06:05:00,
2013-04-11 02:06:00,69.9,55.4,29.87,SW,236,0.0,9.0,60,0.00,,,0.00,Wunderground v.1.15,2013-04-11 06:06:00,
2013-04-11 02:11:00,69.9,55.4,29.87,SW,221,0.0,9.0,60,0.00,,,0.00,Wunderground v.1.15,2013-04-11 06:11:00,
2013-04-11 02:12:00,70.0,55.5,29.87,SW,221,0.0,9.0,60,0.00,,,0.00,Wunderground v.1.15,2013-04-11 06:12:00,
2013-04-11 02:13:00,70.0,55.9,29.87,SSW,213,0.0,9.0,61,0.00,,,0.00,Wunderground v.1.15,2013-04-11 06:13:00,
2013-04-11 02:15:00,70.0,55.5,29.87,SW,225,1.0,9.0,60,0.00,,,0.00,Wunderground v.1.15,2013-04-11 06:15:00,
2013-04-11 02:17:00,70.0,55.9,29.87,SW,235,1.0,9.0,61,0.00,,,0.00,Wunderground v.1.15,2013-04-11 06:17:00,
2013-04-11 02:19:00,70.0,55.9,29.87,SW,215,1.0,9.0,61,0.00,,,0.00,Wunderground v.1.15,2013-04-11 06:19:00,
2013-04-11 02:24:00,70.1,56.0,29.86,SW,234,1.0,9.0,61,0.00,,,0.00,Wunderground v.1.15,2013-04-11 06:24:00,
2013-04-11 02:25:00,70.0,55.9,29.86,SW,230,1.0,9.0,61,0.00,,,0.00,Wunderground v.1.15,2013-04-11 06:25:00,
2013-04-11 02:27:00,70.0,55.9,29.86,SW,226,1.0,9.0,61,0.00,,,0.00,Wunderground v.1.15,2013-04-11 06:27:00,
2013-04-11 02:30:00,70.0,55.9,29.86,SW,225,0.0,9.0,61,0.00,,,0.00,Wunderground v.1.15,2013-04-11 06:30:00,
2013-04-11 02:32:00,70.0,55.9,29.86,SW,236,0.0,9.0,61,0.00,,,0.00,Wunderground v.1.15,2013-04-11 06:32:00,
2013-04-11 02:33:00,69.9,55.8,29.86,SW,232,1.0,9.0,61,0.00,,,0.00,Wunderground v.1.15,2013-04-11 06:33:00,
2013-04-11 02:37:00,69.8,55.7,29.85,SSW,208,1.0,9.0,61,0.00,,,0.00,Wunderground v.1.15,2013-04-11 06:37:00,
2013-04-11 02:39:00,69.8,55.7,29.85,SW,227,1.0,9.0,61,0.00,,,0.00,Wunderground v.1.15,2013-04-11 06:39:00,
2013-04-11 02:40:00,69.8,55.7,29.85,WSW,240,1.0,9.0,61,0.00,,,0.00,Wunderground v.1.15,2013-04-11 06:40:00,
2013-04-11 02:41:00,69.8,55.7,29.85,SSW,202,1.0,9.0,61,0.00,,,0.00,Wunderground v.1.15,2013-04-11 06:41:00,
2013-04-11 02:46:00,69.7,56.1,29.84,SSW,203,1.0,9.0,62,0.00,,,0.00,Wunderground v.1.15,2013-04-11 06:46:00,
2013-04-11 02:47:00,69.7,56.1,29.84,SW,223,1.0,9.0,62,0.00,,,0.00,Wunderground v.1.15,2013-04-11 06:47:00,
2013-04-11 02:49:00,69.7,56.1,29.84,SW,232,2.0,9.0,62,0.00,,,0.00,Wunderground v.1.15,2013-04-11 06:49:00,
2013-04-11 02:52:00,69.6,56.0,29.85,SW,227,1.0,3.0,62,0.00,,,0.00,Wunderground v.1.15,2013-04-11 06:52:00,
2013-04-11 02:53:00,69.5,55.9,29.85,SW,232,1.0,9.0,62,0.00,,,0.00,Wunderground v.1.15,2013-04-11 06:53:00,
2013-04-11 02:54:00,69.5,55.9,29.84,SW,232,1.0,9.0,62,0.00,,,0.00,Wunderground v.1.15,2013-04-11 06:54:00,
2013-04-11 02:55:00,69.4,55.8,29.84,SSW,213,1.0,9.0,62,0.00,,,0.00,Wunderground v.1.15,2013-04-11 06:55:00,
2013-04-11 02:58:00,69.3,55.7,29.84,SSW,202,1.0,9.0,62,0.00,,,0.00,Wunderground v.1.15,2013-04-11 06:58:00,
2013-04-11 02:59:00,69.3,55.7,29.84,SSW,197,1.0,9.0,62,0.00,,,0.00,Wunderground v.1.15,2013-04-11 06:59:00,
2013-04-11 03:01:00,69.4,56.3,29.84,SSW,211,1.0,9.0,63,0.00,,,0.00,Wunderground v.1.15,2013-04-11 07:01:00,
2013-04-11 03:04:00,69.4,55.8,29.84,SW,217,1.0,9.0,62,0.00,,,0.00,Wunderground v.1.15,2013-04-11 07:04:00,
2013-04-11 03:07:00,69.5,55.9,29.84,SW,222,1.0,9.0,62,0.00,,,0.00,Wunderground v.1.15,2013-04-11 07:07:00,
2013-04-11 03:08:00,69.6,56.0,29.84,SSW,213,2.0,9.0,62,0.00,,,0.00,Wunderground v.1.15,2013-04-11 07:08:00,
2013-04-11 03:10:00,69.6,56.0,29.84,SSW,201,2.0,9.0,62,0.00,,,0.00,Wunderground v.1.15,2013-04-11 07:10:00,
2013-04-11 03:14:00,69.6,56.0,29.84,SW,234,2.0,9.0,62,0.00,,,0.00,Wunderground v.1.15,2013-04-11 07:14:00,
2013-04-11 03:16:00,69.6,56.4,29.84,WSW,250,2.0,9.0,63,0.00,,,0.00,Wunderground v.1.15,2013-04-11 07:16:00,
2013-04-11 03:17:00,69.6,56.4,29.84,SW,235,3.0,9.0,63,0.00,,,0.00,Wunderground v.1.15,2013-04-11 07:17:00,
2013-04-11 03:20:00,69.5,56.3,29.84,WSW,238,3.0,9.0,63,0.00,,,0.00,Wunderground v.1.15,2013-04-11 07:20:00,
2013-04-11 03:23:00,69.4,56.3,29.84,WSW,253,2.0,9.0,63,0.00,,,0.00,Wunderground v.1.15,2013-04-11 07:23:00,
2013-04-11 03:25:00,69.4,56.3,29.84,WSW,240,2.0,9.0,63,0.00,,,0.00,Wunderground v.1.15,2013-04-11 07:25:00,
2013-04-11 03:29:00,69.3,56.2,29.84,WSW,252,2.0,9.0,63,0.00,,,0.00,Wunderground v.1.15,2013-04-11 07:29:00,
2013-04-11 03:30:00,69.3,56.6,29.84,West,267,2.0,9.0,64,0.00,,,0.00,Wunderground v.1.15,2013-04-11 07:30:00,
2013-04-11 03:31:00,69.3,56.6,29.84,SW,235,2.0,9.0,64,0.00,,,0.00,Wunderground v.1.15,2013-04-11 07:31:00,
2013-04-11 03:34:00,69.3,56.6,29.84,WSW,237,2.0,9.0,64,0.00,,,0.00,Wunderground v.1.15,2013-04-11 07:34:00,
2013-04-11 03:36:00,69.2,56.5,29.84,SW,227,2.0,9.0,64,0.00,,,0.00,Wunderground v.1.15,2013-04-11 07:36:00,
2013-04-11 03:39:00,69.2,56.5,29.84,SW,232,2.0,2.0,64,0.00,,,0.00,Wunderground v.1.15,2013-04-11 07:39:00,
2013-04-11 03:40:00,69.2,56.5,29.84,SW,227,1.0,9.0,64,0.00,,,0.00,Wunderground v.1.15,2013-04-11 07:40:00,
2013-04-11 03:41:00,69.2,56.5,29.84,SW,230,1.0,9.0,64,0.00,,,0.00,Wunderground v.1.15,2013-04-11 07:41:00,
2013-04-11 03:43:00,69.1,56.4,29.84,SW,224,1.0,9.0,64,0.00,,,0.00,Wunderground v.1.15,2013-04-11 07:43:00,
2013-04-11 03:44:00,69.1,56.4,29.84,SSW,213,1.0,9.0,64,0.00,,,0.00,Wunderground v.1.15,2013-04-11 07:44:00,
2013-04-11 03:46:00,69.1,56.4,29.84,South,187,1.0,9.0,64,0.00,,,0.00,Wunderground v.1.15,2013-04-11 07:46:00,
2013-04-11 03:49:00,69.1,56.4,29.84,SW,234,1.0,1.0,64,0.00,,,0.00,Wunderground v.1.15,2013-04-11 07:49:00,
2013-04-11 03:50:00,69.1,56.8,29.84,SW,224,1.0,9.0,65,0.00,,,0.00,Wunderground v.1.15,2013-04-11 07:50:00,
2013-04-11 03:52:00,69.1,56.8,29.84,SSW,194,1.0,9.0,65,0.00,,,0.00,Wunderground v.1.15,2013-04-11 07:52:00,
2013-04-11 03:55:00,69.2,56.5,29.84,SW,235,1.0,9.0,64,0.00,,,0.00,Wunderground v.1.15,2013-04-11 07:55:00,
2013-04-11 03:56:00,69.3,56.6,29.84,SSW,211,1.0,9.0,64,0.00,,,0.00,Wunderground v.1.15,2013-04-11 07:56:00,
2013-04-11 04:01:00,69.3,56.6,29.84,SW,231,1.0,9.0,64,0.00,,,0.00,Wunderground v.1.15,2013-04-11 08:01:00,
2013-04-11 04:02:00,69.4,56.7,29.84,SW,223,1.0,9.0,64,0.00,,,0.00,Wunderground v.1.15,2013-04-11 08:02:00,
2013-04-11 04:03:00,69.4,56.7,29.84,SW,233,1.0,9.0,64,0.00,,,0.00,Wunderground v.1.15,2013-04-11 08:03:00,
2013-04-11 04:07:00,69.4,56.7,29.84,SW,227,1.0,9.0,64,0.00,,,0.00,Wunderground v.1.15,2013-04-11 08:07:00,
2013-04-11 04:08:00,69.4,56.7,29.84,SW,227,1.0,9.0,64,0.00,,,0.00,Wunderground v.1.15,2013-04-11 08:08:00,
2013-04-11 04:09:00,69.4,56.7,29.83,SW,225,2.0,9.0,64,0.00,,,0.00,Wunderground v.1.15,2013-04-11 08:09:00,
2013-04-11 04:10:00,69.4,56.7,29.84,SSW,205,2.0,2.0,64,0.00,,,0.00,Wunderground v.1.15,2013-04-11 08:10:00,
2013-04-11 04:12:00,69.5,56.8,29.83,SW,225,1.0,9.0,64,0.00,,,0.00,Wunderground v.1.15,2013-04-11 08:12:00,
2013-04-11 04:15:00,69.5,56.8,29.83,SSW,205,1.0,9.0,64,0.00,,,0.00,Wunderground v.1.15,2013-04-11 08:15:00,
2013-04-11 04:17:00,69.5,56.8,29.83,WSW,241,1.0,9.0,64,0.00,,,0.00,Wunderground v.1.15,2013-04-11 08:17:00,
2013-04-11 04:18:00,69.5,56.8,29.83,South,183,1.0,9.0,64,0.00,,,0.00,Wunderground v.1.15,2013-04-11 08:18:00,
2013-04-11 04:21:00,69.5,56.8,29.83,SW,216,1.0,9.0,64,0.00,,,0.00,Wunderground v.1.15,2013-04-11 08:21:00,
2013-04-11 04:23:00,69.5,56.8,29.83,SSW,192,1.0,9.0,64,0.00,,,0.00,Wunderground v.1.15,2013-04-11 08:23:00,
2013-04-11 04:27:00,69.5,56.8,29.83,SW,221,2.0,9.0,64,0.00,,,0.00,Wunderground v.1.15,2013-04-11 08:27:00,
2013-04-11 04:29:00,69.5,56.8,29.83,SW,221,2.0,9.0,64,0.00,,,0.00,Wunderground v.1.15,2013-04-11 08:29:00,
2013-04-11 04:31:00,69.5,56.8,29.83,SSW,208,2.0,3.0,64,0.00,,,0.00,Wunderground v.1.15,2013-04-11 08:31:00,
2013-04-11 04:32:00,69.5,56.8,29.83,SW,228,2.0,9.0,64,0.00,,,0.00,Wunderground v.1.15,2013-04-11 08:32:00,
2013-04-11 04:35:00,69.4,56.7,29.83,SSW,195,2.0,9.0,64,0.00,,,0.00,Wunderground v.1.15,2013-04-11 08:35:00,
2013-04-11 04:37:00,69.4,56.7,29.83,SW,231,2.0,9.0,64,0.00,,,0.00,Wunderground v.1.15,2013-04-11 08:37:00,
2013-04-11 04:40:00,69.3,56.6,29.83,SSW,198,1.0,9.0,64,0.00,,,0.00,Wunderground v.1.15,2013-04-11 08:40:00,
2013-04-11 04:41:00,69.4,56.7,29.83,SSW,209,2.0,9.0,64,0.00,,,0.00,Wunderground v.1.15,2013-04-11 08:41:00,
2013-04-11 04:42:00,69.4,56.7,29.83,WSW,238,2.0,9.0,64,0.00,,,0.00,Wunderground v.1.15,2013-04-11 08:42:00,
2013-04-11 04:46:00,69.3,56.6,29.83,SW,218,2.0,9.0,64,0.00,,,0.00,Wunderground v.1.15,2013-04-11 08:46:00,
2013-04-11 04:48:00,69.3,56.6,29.83,SSW,196,2.0,9.0,64,0.00,,,0.00,Wunderground v.1.15,2013-04-11 08:48:00,
2013-04-11 04:49:00,69.3,56.6,29.83,SSW,192,2.0,9.0,64,0.00,,,0.00,Wunderground v.1.15,2013-04-11 08:49:00,
2013-04-11 04:54:00,69.1,56.4,29.83,South,189,2.0,9.0,64,0.00,,,0.00,Wunderground v.1.15,2013-04-11 08:54:00,
2013-04-11 04:55:00,69.1,56.8,29.83,SSW,203,2.0,9.0,65,0.00,,,0.00,Wunderground v.1.15,2013-04-11 08:55:00,
2013-04-11 04:57:00,69.0,56.7,29.83,SW,236,3.0,9.0,65,0.00,,,0.00,Wunderground v.1.15,2013-04-11 08:57:00,
2013-04-11 04:59:00,69.0,56.7,29.82,South,190,3.0,9.0,65,0.00,,,0.00,Wunderground v.1.15,2013-04-11 08:59:00,
2013-04-11 05:02:00,69.0,56.7,29.82,South,182,3.0,9.0,65,0.00,,,0.00,Wunderground v.1.15,2013-04-11 09:02:00,
2013-04-11 05:04:00,69.0,56.7,29.82,SW,216,3.0,9.0,65,0.00,,,0.00,Wunderground v.1.15,2013-04-11 09:04:00,
2013-04-11 05:08:00,69.0,56.7,29.83,SSW,200,3.0,9.0,65,0.00,,,0.00,Wunderground v.1.15,2013-04-11 09:08:00,
2013-04-11 05:09:00,69.0,56.7,29.83,SW,222,3.0,9.0,65,0.00,,,0.00,Wunderground v.1.15,2013-04-11 09:09:00,
2013-04-11 05:10:00,69.0,56.7,29.83,WSW,238,3.0,9.0,65,0.00,,,0.00,Wunderground v.1.15,2013-04-11 09:10:00,
2013-04-11 05:14:00,68.9,56.6,29.83,SW,221,2.0,9.0,65,0.00,,,0.00,Wunderground v.1.15,2013-04-11 09:14:00,
2013-04-11 05:16:00,68.9,56.6,29.83,SW,232,2.0,9.0,65,0.00,,,0.00,Wunderground v.1.15,2013-04-11 09:16:00,
2013-04-11 05:17:00,68.9,56.6,29.83,SW,217,2.0,9.0,65,0.00,,,0.00,Wunderground v.1.15,2013-04-11 09:17:00,
2013-04-11 05:18:00,68.9,56.6,29.83,SW,219,2.0,9.0,65,0.00,,,0.00,Wunderground v.1.15,2013-04-11 09:18:00,
2013-04-11 05:21:00,68.9,56.6,29.83,SW,219,2.0,9.0,65,0.00,,,0.00,Wunderground v.1.15,2013-04-11 09:21:00,
2013-04-11 05:22:00,68.9,56.6,29.83,SW,219,2.0,9.0,65,0.00,,,0.00,Wunderground v.1.15,2013-04-11 09:22:00,
2013-04-11 05:25:00,69.0,56.7,29.83,SW,221,2.0,9.0,65,0.00,,,0.00,Wunderground v.1.15,2013-04-11 09:25:00,
2013-04-11 05:28:00,69.0,56.7,29.83,South,183,2.0,9.0,65,0.00,,,0.00,Wunderground v.1.15,2013-04-11 09:28:00,
2013-04-11 05:30:00,69.0,56.7,29.83,SW,219,2.0,9.0,65,0.00,,,0.00,Wunderground v.1.15,2013-04-11 09:30:00,
2013-04-11 05:32:00,69.1,56.8,29.83,SSW,202,2.0,9.0,65,0.00,,,0.00,Wunderground v.1.15,2013-04-11 09:32:00,
2013-04-11 05:33:00,69.1,56.8,29.83,SW,223,2.0,9.0,65,0.00,,,0.00,Wunderground v.1.15,2013-04-11 09:33:00,
2013-04-11 05:35:00,69.1,56.8,29.83,SW,215,2.0,9.0,65,0.00,,,0.00,Wunderground v.1.15,2013-04-11 09:35:00,
2013-04-11 05:38:00,69.2,56.9,29.83,SW,227,2.0,9.0,65,0.00,,,0.00,Wunderground v.1.15,2013-04-11 09:38:00,
2013-04-11 05:40:00,69.2,56.5,29.83,SSW,202,2.0,9.0,64,0.00,,,0.00,Wunderground v.1.15,2013-04-11 09:40:00,
2013-04-11 05:41:00,69.3,56.6,29.83,SW,233,2.0,2.0,64,0.00,,,0.00,Wunderground v.1.15,2013-04-11 09:41:00,
2013-04-11 05:45:00,69.3,56.6,29.83,SSW,199,2.0,9.0,64,0.00,,,0.00,Wunderground v.1.15,2013-04-11 09:45:00,
2013-04-11 05:46:00,69.3,56.6,29.83,SW,226,2.0,9.0,64,0.00,,,0.00,Wunderground v.1.15,2013-04-11 09:46:00,
2013-04-11 05:49:00,69.4,56.7,29.83,South,191,2.0,9.0,64,0.00,,,0.00,Wunderground v.1.15,2013-04-11 09:49:00,
2013-04-11 05:50:00,69.4,56.7,29.83,SSW,196,2.0,9.0,64,0.00,,,0.00,Wunderground v.1.15,2013-04-11 09:50:00,
2013-04-11 05:52:00,69.3,56.6,29.83,SW,223,3.0,9.0,64,0.00,,,0.00,Wunderground v.1.15,2013-04-11 09:52:00,
2013-04-11 05:54:00,69.3,57.0,29.83,SW,224,3.0,9.0,65,0.00,,,0.00,Wunderground v.1.15,2013-04-11 09:54:00,
2013-04-11 05:57:00,69.0,56.7,29.83,SSW,197,2.0,9.0,65,0.00,,,0.00,Wunderground v.1.15,2013-04-11 09:57:00,
2013-04-11 05:58:00,69.0,56.7,29.83,SSW,198,2.0,9.0,65,0.00,,,0.00,Wunderground v.1.15,2013-04-11 09:58:00,
2013-04-11 05:59:00,68.9,56.6,29.83,SW,223,2.0,9.0,65,0.00,,,0.00,Wunderground v.1.15,2013-04-11 09:59:00,
2013-04-11 06:02:00,68.8,56.6,29.83,SSW,213,2.0,3.0,65,0.00,,,0.00,Wunderground v.1.15,2013-04-11 10:02:00,
2013-04-11 06:05:00,68.9,57.1,29.83,WSW,244,2.0,9.0,66,0.00,,,0.00,Wunderground v.1.15,2013-04-11 10:05:00,
2013-04-11 06:06:00,68.9,56.6,29.83,SW,222,2.0,9.0,65,0.00,,,0.00,Wunderground v.1.15,2013-04-11 10:06:00,
2013-04-11 06:10:00,68.8,57.0,29.83,WSW,252,2.0,9.0,66,0.00,,,0.00,Wunderground v.1.15,2013-04-11 10:10:00,
2013-04-11 06:11:00,68.9,56.6,29.83,SW,235,3.0,9.0,65,0.00,,,0.00,Wunderground v.1.15,2013-04-11 10:11:00,
2013-04-11 06:12:00,68.9,57.1,29.83,SW,236,3.0,9.0,66,0.00,,,0.00,Wunderground v.1.15,2013-04-11 10:12:00,
2013-04-11 06:14:00,68.9,57.1,29.83,SW,228,3.0,9.0,66,0.00,,,0.00,Wunderground v.1.15,2013-04-11 10:14:00,
2013-04-11 06:15:00,68.9,57.1,29.83,SW,228,3.0,9.0,66,0.00,,,0.00,Wunderground v.1.15,2013-04-11 10:15:00,
2013-04-11 06:16:00,68.9,57.1,29.83,SW,236,3.0,9.0,66,0.00,,,0.00,Wunderground v.1.15,2013-04-11 10:16:00,
2013-04-11 06:21:00,68.8,57.0,29.83,SW,223,3.0,9.0,66,0.00,,,0.00,Wunderground v.1.15,2013-04-11 10:21:00,
2013-04-11 06:22:00,68.9,57.1,29.83,SW,227,3.0,9.0,66,0.00,,,0.00,Wunderground v.1.15,2013-04-11 10:22:00,
2013-04-11 06:27:00,68.7,56.9,29.83,WSW,237,3.0,9.0,66,0.00,,,0.00,Wunderground v.1.15,2013-04-11 10:27:00,
2013-04-11 06:29:00,68.8,57.0,29.83,SW,232,3.0,9.0,66,0.00,,,0.00,Wunderground v.1.15,2013-04-11 10:29:00,
2013-04-11 06:31:00,68.8,57.0,29.83,WSW,244,3.0,9.0,66,0.00,,,0.00,Wunderground v.1.15,2013-04-11 10:31:00,
2013-04-11 06:32:00,68.8,57.0,29.83,SW,236,3.0,9.0,66,0.00,,,0.00,Wunderground v.1.15,2013-04-11 10:32:00,
2013-04-11 06:37:00,69.0,57.2,29.83,WSW,242,4.0,9.0,66,0.00,,,0.00,Wunderground v.1.15,2013-04-11 10:37:00,
2013-04-11 06:38:00,69.1,57.3,29.83,WSW,242,4.0,9.0,66,0.00,,,0.00,Wunderground v.1.15,2013-04-11 10:38:00,
2013-04-11 06:43:00,69.2,56.9,29.83,WSW,239,4.0,9.0,65,0.00,,,0.00,Wunderground v.1.15,2013-04-11 10:43:00,
2013-04-11 06:45:00,69.2,56.9,29.83,WSW,249,4.0,9.0,65,0.00,,,0.00,Wunderground v.1.15,2013-04-11 10:45:00,
2013-04-11 06:48:00,69.1,57.3,29.83,SSW,211,4.0,9.0,66,0.00,,,0.00,Wunderground v.1.15,2013-04-11 10:48:00,
2013-04-11 06:49:00,69.1,57.3,29.83,WSW,240,4.0,9.0,66,0.00,,,0.00,Wunderground v.1.15,2013-04-11 10:49:00,
2013-04-11 06:50:00,69.1,57.3,29.83,WSW,250,4.0,9.0,66,0.00,,,0.00,Wunderground v.1.15,2013-04-11 10:50:00,
2013-04-11 06:53:00,69.1,57.3,29.83,WSW,248,3.0,9.0,66,0.00,,,0.00,Wunderground v.1.15,2013-04-11 10:53:00,
2013-04-11 06:55:00,69.0,57.2,29.84,WSW,249,4.0,9.0,66,0.00,,,0.00,Wunderground v.1.15,2013-04-11 10:55:00,
2013-04-11 06:58:00,69.0,57.2,29.83,SW,236,4.0,9.0,66,0.00,,,0.00,Wunderground v.1.15,2013-04-11 10:58:00,
2013-04-11 06:59:00,69.0,57.2,29.84,SW,231,3.0,9.0,66,0.00,,,0.00,Wunderground v.1.15,2013-04-11 10:59:00,
2013-04-11 07:04:00,69.2,57.4,29.83,SW,230,4.0,9.0,66,0.00,,,0.00,Wunderground v.1.15,2013-04-11 11:04:00,
2013-04-11 07:05:00,69.1,57.3,29.83,SW,224,4.0,9.0,66,0.00,,,0.00,Wunderground v.1.15,2013-04-11 11:05:00,
2013-04-11 07:07:00,69.2,57.4,29.84,SW,234,4.0,9.0,66,0.00,,,0.00,Wunderground v.1.15,2013-04-11 11:07:00,
2013-04-11 07:10:00,69.2,57.4,29.84,SSW,212,4.0,9.0,66,0.00,,,0.00,Wunderground v.1.15,2013-04-11 11:10:00,
2013-04-11 07:11:00,69.1,57.3,29.84,SSW,198,4.0,4.0,66,0.00,,,0.00,Wunderground v.1.15,2013-04-11 11:11:00,
2013-04-11 07:13:00,69.1,57.3,29.84,West,269,4.0,9.0,66,0.00,,,0.00,Wunderground v.1.15,2013-04-11 11:13:00,
2013-04-11 07:15:00,69.0,57.2,29.84,South,186,4.0,9.0,66,0.00,,,0.00,Wunderground v.1.15,2013-04-11 11:15:00,
2013-04-11 07:19:00,69.1,57.3,29.84,West,269,4.0,9.0,66,0.00,,,0.00,Wunderground v.1.15,2013-04-11 11:19:00,
2013-04-11 07:21:00,69.2,57.4,29.84,WSW,246,4.0,9.0,66,0.00,,,0.00,Wunderground v.1.15,2013-04-11 11:21:00,
2013-04-11 07:24:00,69.2,57.4,29.84,WSW,238,5.0,9.0,66,0.00,,,0.00,Wunderground v.1.15,2013-04-11 11:24:00,
2013-04-11 07:25:00,69.2,57.4,29.84,WSW,240,5.0,9.0,66,0.00,,,0.00,Wunderground v.1.15,2013-04-11 11:25:00,
2013-04-11 07:27:00,69.3,57.5,29.84,SW,221,5.0,9.0,66,0.00,,,0.00,Wunderground v.1.15,2013-04-11 11:27:00,
2013-04-11 07:30:00,69.3,57.9,29.84,WSW,257,5.0,9.0,67,0.00,,,0.00,Wunderground v.1.15,2013-04-11 11:30:00,
2013-04-11 07:31:00,69.3,57.5,29.84,WSW,254,5.0,9.0,66,0.00,,,0.00,Wunderground v.1.15,2013-04-11 11:31:00,
2013-04-11 07:33:00,69.3,57.9,29.84,SW,217,5.0,9.0,67,0.00,,,0.00,Wunderground v.1.15,2013-04-11 11:33:00,
2013-04-11 07:34:00,69.3,57.9,29.84,WSW,252,5.0,9.0,67,0.00,,,0.00,Wunderground v.1.15,2013-04-11 11:34:00,
2013-04-11 07:35:00,69.3,57.5,29.84,WSW,257,5.0,9.0,66,0.00,,,0.00,Wunderground v.1.15,2013-04-11 11:35:00,
2013-04-11 07:38:00,69.5,57.6,29.84,WSW,244,6.0,9.0,66,0.00,,,0.00,Wunderground v.1.15,2013-04-11 11:38:00,
2013-04-11 07:39:00,69.5,57.6,29.84,SW,218,5.0,9.0,66,0.00,,,0.00,Wunderground v.1.15,2013-04-11 11:39:00,
2013-04-11 07:40:00,69.5,57.6,29.84,SW,214,6.0,9.0,66,0.00,,,0.00,Wunderground v.1.15,2013-04-11 11:40:00,
2013-04-11 07:42:00,69.5,57.6,29.84,SSE,167,6.0,9.0,66,0.00,,,0.00,Wunderground v.1.15,2013-04-11 11:42:00,
2013-04-11 07:46:00,69.4,58.0,29.84,SW,220,5.0,9.0,67,0.00,,,0.00,Wunderground v.1.15,2013-04-11 11:46:00,
2013-04-11 07:47:00,69.4,58.0,29.84,SSW,197,5.0,9.0,67,0.00,,,0.00,Wunderground v.1.15,2013-04-11 11:47:00,
2013-04-11 07:48:00,69.4,58.0,29.84,SW,216,5.0,9.0,67,0.00,,,0.00,Wunderground v.1.15,2013-04-11 11:48:00,
2013-04-11 07:51:00,69.5,57.6,29.84,WSW,244,4.0,4.0,66,0.00,,,0.00,Wunderground v.1.15,2013-04-11 11:51:00,
2013-04-11 07:52:00,69.5,58.1,29.84,WSW,245,4.0,9.0,67,0.00,,,0.00,Wunderground v.1.15,2013-04-11 11:52:00,
2013-04-11 07:53:00,69.5,58.1,29.84,SW,232,4.0,9.0,67,0.00,,,0.00,Wunderground v.1.15,2013-04-11 11:53:00,
2013-04-11 07:56:00,69.6,57.7,29.84,SW,219,4.0,9.0,66,0.00,,,0.00,Wunderground v.1.15,2013-04-11 11:56:00,
2013-04-11 07:58:00,69.7,57.8,29.84,South,184,4.0,9.0,66,0.00,,,0.00,Wunderground v.1.15,2013-04-11 11:58:00,
2013-04-11 08:02:00,69.7,57.8,29.84,WSW,250,4.0,9.0,66,0.00,,,0.00,Wunderground v.1.15,2013-04-11 12:02:00,
2013-04-11 08:03:00,69.6,57.7,29.84,SSW,197,4.0,9.0,66,0.00,,,0.00,Wunderground v.1.15,2013-04-11 12:03:00,
2013-04-11 08:04:00,69.7,58.3,29.84,West,265,3.0,9.0,67,0.00,,,0.00,Wunderground v.1.15,2013-04-11 12:04:00,
2013-04-11 08:07:00,69.7,58.3,29.84,SW,225,3.0,9.0,67,0.00,,,0.00,Wunderground v.1.15,2013-04-11 12:07:00,
2013-04-11 08:08:00,69.7,58.3,29.84,SSW,203,3.0,9.0,67,0.00,,,0.00,Wunderground v.1.15,2013-04-11 12:08:00,
2013-04-11 08:09:00,69.7,58.3,29.84,SSW,211,3.0,9.0,67,0.00,,,0.00,Wunderground v.1.15,2013-04-11 12:09:00,
2013-04-11 08:13:00,69.8,58.3,29.84,SW,222,4.0,9.0,67,0.00,,,0.00,Wunderground v.1.15,2013-04-11 12:13:00,
2013-04-11 08:14:00,69.8,58.3,29.84,SW,227,4.0,9.0,67,0.00,,,0.00,Wunderground v.1.15,2013-04-11 12:14:00,
2013-04-11 08:16:00,69.7,58.3,29.84,WSW,256,4.0,9.0,67,0.00,,,0.00,Wunderground v.1.15,2013-04-11 12:16:00,
2013-04-11 08:19:00,69.8,58.3,29.84,SW,216,4.0,9.0,67,0.00,,,0.00,Wunderground v.1.15,2013-04-11 12:19:00,
2013-04-11 08:21:00,69.7,58.3,29.84,WSW,245,3.0,9.0,67,0.00,,,0.00,Wunderground v.1.15,2013-04-11 12:21:00,
2013-04-11 08:22:00,69.7,58.3,29.84,WSW,242,3.0,9.0,67,0.00,,,0.00,Wunderground v.1.15,2013-04-11 12:22:00,
2013-04-11 08:27:00,69.8,58.3,29.84,South,182,3.0,9.0,67,0.00,,,0.00,Wunderground v.1.15,2013-04-11 12:27:00,
2013-04-11 08:28:00,69.8,58.3,29.84,SSW,211,3.0,9.0,67,0.00,,,0.00,Wunderground v.1.15,2013-04-11 12:28:00,
2013-04-11 08:30:00,70.0,58.5,29.84,SW,232,4.0,9.0,67,0.00,,,0.00,Wunderground v.1.15,2013-04-11 12:30:00,
2013-04-11 08:31:00,70.0,58.5,29.84,SW,216,4.0,9.0,67,0.00,,,0.00,Wunderground v.1.15,2013-04-11 12:31:00,
2013-04-11 08:34:00,70.0,58.5,29.84,SW,233,4.0,9.0,67,0.00,,,0.00,Wunderground v.1.15,2013-04-11 12:34:00,
2013-04-11 08:37:00,70.0,58.5,29.84,SW,219,4.0,9.0,67,0.00,,,0.00,Wunderground v.1.15,2013-04-11 12:37:00,
2013-04-11 08:38:00,70.1,58.6,29.84,WSW,238,4.0,9.0,67,0.00,,,0.00,Wunderground v.1.15,2013-04-11 12:38:00,
2013-04-11 08:41:00,70.1,58.6,29.84,SW,225,4.0,9.0,67,0.00,,,0.00,Wunderground v.1.15,2013-04-11 12:41:00,
2013-04-11 08:43:00,70.1,58.6,29.84,WSW,251,4.0,9.0,67,0.00,,,0.00,Wunderground v.1.15,2013-04-11 12:43:00,
2013-04-11 08:44:00,70.2,58.7,29.84,SW,226,4.0,9.0,67,0.00,,,0.00,Wunderground v.1.15,2013-04-11 12:44:00,
2013-04-11 08:45:00,70.2,58.7,29.84,WSW,258,4.0,9.0,67,0.00,,,0.00,Wunderground v.1.15,2013-04-11 12:45:00,
2013-04-11 08:47:00,70.2,59.1,29.84,WSW,238,4.0,9.0,68,0.00,,,0.00,Wunderground v.1.15,2013-04-11 12:47:00,
2013-04-11 08:52:00,70.3,58.8,29.84,SW,216,3.0,9.0,67,0.00,,,0.00,Wunderground v.1.15,2013-04-11 12:52:00,
2013-04-11 08:53:00,70.3,58.8,29.84,SW,236,3.0,9.0,67,0.00,,,0.00,Wunderground v.1.15,2013-04-11 12:53:00,
2013-04-11 08:54:00,70.3,58.8,29.84,WSW,247,3.0,9.0,67,0.00,,,0.00,Wunderground v.1.15,2013-04-11 12:54:00,
2013-04-11 08:56:00,70.4,58.9,29.84,SSW,209,4.0,9.0,67,0.00,,,0.00,Wunderground v.1.15,2013-04-11 12:56:00,
2013-04-11 08:59:00,70.5,59.0,29.84,SW,221,5.0,9.0,67,0.00,,,0.00,Wunderground v.1.15,2013-04-11 12:59:00,
2013-04-11 09:01:00,70.5,58.6,29.84,SSW,207,5.0,9.0,66,0.00,,,0.00,Wunderground v.1.15,2013-04-11 13:01:00,
2013-04-11 09:03:00,70.6,59.1,29.84,West,265,5.0,9.0,67,0.00,,,0.00,Wunderground v.1.15,2013-04-11 13:03:00,
2013-04-11 09:07:00,70.8,59.3,29.84,WSW,240,5.0,9.0,67,0.00,,,0.00,Wunderground v.1.15,2013-04-11 13:07:00,
2013-04-11 09:09:00,70.8,59.3,29.85,SSW,197,5.0,9.0,67,0.00,,,0.00,Wunderground v.1.15,2013-04-11 13:09:00,
2013-04-11 09:11:00,70.9,59.0,29.84,WSW,252,5.0,5.0,66,0.00,,,0.00,Wunderground v.1.15,2013-04-11 13:11:00,
2013-04-11 09:12:00,70.9,59.4,29.84,South,186,5.0,9.0,67,0.00,,,0.00,Wunderground v.1.15,2013-04-11 13:12:00,
2013-04-11 09:13:00,70.9,59.4,29.85,West,266,5.0,9.0,67,0.00,,,0.00,Wunderground v.1.15,2013-04-11 13:13:00,
2013-04-11 09:17:00,71.1,59.2,29.84,WSW,250,6.0,14.0,66,0.00,,,0.00,Wunderground v.1.15,2013-04-11 13:17:00,
2013-04-11 09:18:00,71.1,59.2,29.84,WSW,245,7.0,14.0,66,0.00,,,0.00,Wunderground v.1.15,2013-04-11 13:18:00,
2013-04-11 09:22:00,71.2,59.7,29.84,WSW,258,7.0,9.0,67,0.00,,,0.00,Wunderground v.1.15,2013-04-11 13:22:00,
2013-04-11 09:23:00,71.2,59.7,29.84,WSW,246,7.0,9.0,67,0.00,,,0.00,Wunderground v.1.15,2013-04-11 13:23:00,
2013-04-11 09:26:00,71.2,59.3,29.84,WSW,252,6.0,9.0,66,0.00,,,0.00,Wunderground v.1.15,2013-04-11 13:26:00,
2013-04-11 09:27:00,71.2,59.3,29.84,SW,228,6.0,9.0,66,0.00,,,0.00,Wunderground v.1.15,2013-04-11 13:27:00,
2013-04-11 09:28:00,71.3,59.4,29.84,West,271,6.0,9.0,66,0.00,,,0.00,Wunderground v.1.15,2013-04-11 13:28:00,
2013-04-11 09:29:00,71.3,59.4,29.84,West,266,6.0,9.0,66,0.00,,,0.00,Wunderground v.1.15,2013-04-11 13:29:00,
2013-04-11 09:31:00,71.3,59.4,29.84,WSW,256,5.0,9.0,66,0.00,,,0.00,Wunderground v.1.15,2013-04-11 13:31:00,
2013-04-11 09:35:00,71.2,59.3,29.85,SW,215,5.0,9.0,66,0.00,,,0.00,Wunderground v.1.15,2013-04-11 13:35:00,
2013-04-11 09:37:00,71.2,59.7,29.84,WSW,254,4.0,9.0,67,0.00,,,0.00,Wunderground v.1.15,2013-04-11 13:37:00,
2013-04-11 09:38:00,71.2,59.7,29.84,West,259,4.0,9.0,67,0.00,,,0.00,Wunderground v.1.15,2013-04-11 13:38:00,
2013-04-11 09:40:00,71.1,60.0,29.85,WSW,246,3.0,9.0,68,0.00,,,0.00,Wunderground v.1.15,2013-04-11 13:40:00,
2013-04-11 09:41:00,71.1,59.6,29.85,WNW,294,3.0,9.0,67,0.00,,,0.00,Wunderground v.1.15,2013-04-11 13:41:00,
2013-04-11 09:42:00,71.1,59.6,29.85,West,267,4.0,9.0,67,0.00,,,0.00,Wunderground v.1.15,2013-04-11 13:42:00,
2013-04-11 09:46:00,71.1,60.0,29.85,West,268,3.0,9.0,68,0.00,,,0.00,Wunderground v.1.15,2013-04-11 13:46:00,
2013-04-11 09:47:00,71.1,59.6,29.85,SW,227,3.0,11.0,67,0.00,,,0.00,Wunderground v.1.15,2013-04-11 13:47:00,
2013-04-11 09:48:00,71.1,59.2,29.85,West,276,3.0,11.0,66,0.00,,,0.00,Wunderground v.1.15,2013-04-11 13:48:00,
2013-04-11 09:51:00,71.1,59.2,29.85,West,263,5.0,9.0,66,0.00,,,0.00,Wunderground v.1.15,2013-04-11 13:51:00,
2013-04-11 09:53:00,71.1,59.6,29.85,West,275,5.0,9.0,67,0.00,,,0.00,Wunderground v.1.15,2013-04-11 13:53:00,
2013-04-11 09:55:00,71.1,59.6,29.84,WSW,248,5.0,14.0,67,0.00,,,0.00,Wunderground v.1.15,2013-04-11 13:55:00,
2013-04-11 09:56:00,71.2,59.3,29.84,WSW,252,7.0,14.0,66,0.00,,,0.00,Wunderground v.1.15,2013-04-11 13:56:00,
2013-04-11 09:59:00,71.2,59.3,29.85,WSW,257,7.0,14.0,66,0.00,,,0.00,Wunderground v.1.15,2013-04-11 13:59:00,
2013-04-11 10:01:00,71.2,59.7,29.85,WSW,252,6.0,9.0,67,0.00,,,0.00,Wunderground v.1.15,2013-04-11 14:01:00,
2013-04-11 10:03:00,71.2,59.3,29.84,WSW,250,6.0,9.0,66,0.00,,,0.00,Wunderground v.1.15,2013-04-11 14:03:00,
2013-04-11 10:06:00,71.1,59.2,29.84,West,261,4.0,9.0,66,0.00,,,0.00,Wunderground v.1.15,2013-04-11 14:06:00,
2013-04-11 10:09:00,71.1,59.6,29.84,SW,229,5.0,10.0,67,0.00,,,0.00,Wunderground v.1.15,2013-04-11 14:09:00,
2013-04-11 10:10:00,71.1,59.6,29.84,SW,218,5.0,10.0,67,0.00,,,0.00,Wunderground v.1.15,2013-04-11 14:10:00,
2013-04-11 10:12:00,71.1,59.6,29.84,West,269,5.0,9.0,67,0.00,,,0.00,Wunderground v.1.15,2013-04-11 14:12:00,
2013-04-11 10:13:00,71.1,59.2,29.84,SSW,211,5.0,9.0,66,0.00,,,0.00,Wunderground v.1.15,2013-04-11 14:13:00,
2013-04-11 10:15:00,71.1,59.6,29.84,West,275,6.0,10.0,67,0.00,,,0.00,Wunderground v.1.15,2013-04-11 14:15:00,
2013-04-11 10:19:00,70.9,59.4,29.84,WSW,252,5.0,10.0,67,0.00,,,0.00,Wunderground v.1.15,2013-04-11 14:19:00,
2013-04-11 10:20:00,70.9,59.8,29.84,WSW,254,5.0,10.0,68,0.00,,,0.00,Wunderground v.1.15,2013-04-11 14:20:00,
2013-04-11 10:21:00,70.8,59.7,29.84,West,259,5.0,5.0,68,0.00,,,0.00,Wunderground v.1.15,2013-04-11 14:21:00,
2013-04-11 10:24:00,70.8,59.3,29.84,South,191,3.0,9.0,67,0.00,,,0.00,Wunderground v.1.15,2013-04-11 14:24:00,
2013-04-11 10:25:00,70.8,59.3,29.84,South,186,3.0,9.0,67,0.00,,,0.00,Wunderground v.1.15,2013-04-11 14:25:00,
2013-04-11 10:26:00,70.8,59.7,29.84,WSW,240,3.0,9.0,68,0.00,,,0.00,Wunderground v.1.15,2013-04-11 14:26:00,
2013-04-11 10:29:00,70.8,59.3,29.84,WSW,254,3.0,9.0,67,0.00,,,0.00,Wunderground v.1.15,2013-04-11 14:29:00,
2013-04-11 10:31:00,70.8,59.3,29.84,SW,218,3.0,3.0,67,0.00,,,0.00,Wunderground v.1.15,2013-04-11 14:31:00,
2013-04-11 10:33:00,70.9,59.4,29.84,WSW,255,4.0,10.0,67,0.00,,,0.00,Wunderground v.1.15,2013-04-11 14:33:00,
2013-04-11 10:38:00,71.0,59.5,29.84,WSW,246,5.0,10.0,67,0.00,,,0.00,Wunderground v.1.15,2013-04-11 14:38:00,
2013-04-11 10:39:00,71.0,59.9,29.84,West,277,5.0,10.0,68,0.00,,,0.00,Wunderground v.1.15,2013-04-11 14:39:00,
2013-04-11 10:40:00,71.0,59.5,29.84,WSW,240,5.0,10.0,67,0.00,,,0.00,Wunderground v.1.15,2013-04-11 14:40:00,
2013-04-11 10:43:00,71.2,60.1,29.84,West,279,5.0,10.0,68,0.00,,,0.00,Wunderground v.1.15,2013-04-11 14:43:00,
2013-04-11 10:44:00,71.2,60.1,29.84,West,261,4.0,10.0,68,0.00,,,0.00,Wunderground v.1.15,2013-04-11 14:44:00,
2013-04-11 10:45:00,71.2,59.7,29.84,SSW,209,4.0,10.0,67,0.00,,,0.00,Wunderground v.1.15,2013-04-11 14:45:00,
2013-04-11 10:48:00,71.5,60.0,29.84,WNW,291,4.0,10.0,67,0.00,,,0.00,Wunderground v.1.15,2013-04-11 14:48:00,
2013-04-11 10:49:00,71.5,60.0,29.84,West,279,4.0,10.0,67,0.00,,,0.00,Wunderground v.1.15,2013-04-11 14:49:00,
2013-04-11 10:52:00,71.9,59.9,29.84,WSW,244,5.0,8.0,66,0.00,,,0.00,Wunderground v.1.15,2013-04-11 14:52:00,
2013-04-11 10:53:00,72.0,60.0,29.84,West,263,5.0,9.0,66,0.00,,,0.00,Wunderground v.1.15,2013-04-11 14:53:00,
2013-04-11 10:54:00,72.0,60.4,29.84,WSW,255,6.0,13.0,67,0.00,,,0.00,Wunderground v.1.15,2013-04-11 14:54:00,
2013-04-11 10:56:00,72.1,60.1,29.84,WSW,248,8.0,13.0,66,0.00,,,0.00,Wunderground v.1.15,2013-04-11 14:56:00,
2013-04-11 10:59:00,72.3,59.9,29.84,West,280,8.0,13.0,65,0.00,,,0.00,Wunderground v.1.15,2013-04-11 14:59:00,
2013-04-11 11:01:00,72.4,60.0,29.84,WSW,241,8.0,12.0,65,0.00,,,0.00,Wunderground v.1.15,2013-04-11 15:01:00,
2013-04-11 11:05:00,72.3,60.7,29.84,WSW,256,7.0,12.0,67,0.00,,,0.00,Wunderground v.1.15,2013-04-11 15:05:00,
2013-04-11 11:08:00,72.3,59.9,29.83,WSW,248,7.0,12.0,65,0.00,,,0.00,Wunderground v.1.15,2013-04-11 15:08:00,
2013-04-11 11:09:00,72.3,59.9,29.84,WSW,248,8.0,12.0,65,0.00,,,0.00,Wunderground v.1.15,2013-04-11 15:09:00,
2013-04-11 11:11:00,72.2,59.8,29.84,SSE,160,8.0,10.0,65,0.00,,,0.00,Wunderground v.1.15,2013-04-11 15:11:00,
2013-04-11 11:14:00,72.2,60.2,29.84,WSW,252,9.0,11.0,66,0.00,,,0.00,Wunderground v.1.15,2013-04-11 15:14:00,
2013-04-11 11:15:00,72.1,59.7,29.84,WSW,248,9.0,11.0,65,0.00,,,0.00,Wunderground v.1.15,2013-04-11 15:15:00,
2013-04-11 11:17:00,72.1,60.1,29.84,NW,306,8.0,11.0,66,0.00,,,0.00,Wunderground v.1.15,2013-04-11 15:17:00,
2013-04-11 11:20:00,72.1,59.7,29.84,WSW,243,7.0,9.0,65,0.00,,,0.00,Wunderground v.1.15,2013-04-11 15:20:00,
2013-04-11 11:22:00,72.1,60.1,29.84,West,275,6.0,9.0,66,0.00,,,0.00,Wunderground v.1.15,2013-04-11 15:22:00,
2013-04-11 11:24:00,72.1,60.1,29.84,SSW,206,5.0,9.0,66,0.00,,,0.00,Wunderground v.1.15,2013-04-11 15:24:00,
2013-04-11 11:27:00,72.0,59.6,29.84,WSW,242,6.0,11.0,65,0.00,,,0.00,Wunderground v.1.15,2013-04-11 15:27:00,
2013-04-11 11:28:00,72.0,60.0,29.84,WNW,291,6.0,11.0,66,0.00,,,0.00,Wunderground v.1.15,2013-04-11 15:28:00,
2013-04-11 11:32:00,72.1,60.1,29.83,SW,236,6.0,13.0,66,0.00,,,0.00,Wunderground v.1.15,2013-04-11 15:32:00,
2013-04-11 11:34:00,72.1,60.1,29.84,WSW,250,7.0,13.0,66,0.00,,,0.00,Wunderground v.1.15,2013-04-11 15:34:00,
2013-04-11 11:36:00,72.2,60.2,29.84,WSW,244,6.0,13.0,66,0.00,,,0.00,Wunderground v.1.15,2013-04-11 15:36:00,
2013-04-11 11:39:00,72.5,60.5,29.84,West,281,6.0,13.0,66,0.00,,,0.00,Wunderground v.1.15,2013-04-11 15:39:00,
2013-04-11 11:42:00,72.8,60.3,29.84,West,260,6.0,12.0,65,0.00,,,0.00,Wunderground v.1.15,2013-04-11 15:42:00,
2013-04-11 11:43:00,72.8,60.3,29.84,WNW,286,6.0,12.0,65,0.00,,,0.00,Wunderground v.1.15,2013-04-11 15:43:00,
2013-04-11 11:44:00,72.8,59.9,29.83,West,259,6.0,12.0,64,0.00,,,0.00,Wunderground v.1.15,2013-04-11 15:44:00,
2013-04-11 11:48:00,73.1,60.6,29.83,WSW,246,6.0,12.0,65,0.00,,,0.00,Wunderground v.1.15,2013-04-11 15:48:00,
2013-04-11 11:49:00,73.2,60.7,29.83,WNW,292,6.0,12.0,65,0.00,,,0.00,Wunderground v.1.15,2013-04-11 15:49:00,
2013-04-11 11:50:00,73.3,60.8,29.83,West,263,6.0,9.0,65,0.00,,,0.00,Wunderground v.1.15,2013-04-11 15:50:00,
2013-04-11 11:53:00,73.5,60.6,29.84,WNW,296,6.0,9.0,64,0.00,,,0.00,Wunderground v.1.15,2013-04-11 15:53:00,
2013-04-11 11:54:00,73.4,60.5,29.84,West,262,5.0,10.0,64,0.00,,,0.00,Wunderground v.1.15,2013-04-11 15:54:00,
2013-04-11 11:56:00,73.2,60.3,29.84,WSW,247,5.0,11.0,64,0.00,,,0.00,Wunderground v.1.15,2013-04-11 15:56:00,
2013-04-11 12:01:00,72.9,60.4,29.84,NW,309,7.0,7.0,65,0.00,,,0.00,Wunderground v.1.15,2013-04-11 16:01:00,
2013-04-11 12:03:00,72.9,60.4,29.84,WNW,292,8.0,11.0,65,0.00,,,0.00,Wunderground v.1.15,2013-04-11 16:03:00,
2013-04-11 12:04:00,72.9,60.9,29.84,WNW,292,7.0,11.0,66,0.00,,,0.00,Wunderground v.1.15,2013-04-11 16:04:00,
2013-04-11 12:10:00,72.9,60.0,29.83,West,278,6.0,9.0,64,0.00,,,0.00,Wunderground v.1.15,2013-04-11 16:10:00,
2013-04-11 12:11:00,72.9,60.4,29.83,WNW,286,7.0,9.0,65,0.00,,,0.00,Wunderground v.1.15,2013-04-11 16:11:00,
2013-04-11 12:13:00,72.9,60.4,29.83,WSW,241,7.0,11.0,65,0.00,,,0.00,Wunderground v.1.15,2013-04-11 16:13:00,
2013-04-11 12:16:00,72.9,60.9,29.83,WNW,291,7.0,11.0,66,0.00,,,0.00,Wunderground v.1.15,2013-04-11 16:16:00,
2013-04-11 12:17:00,73.0,60.5,29.83,WSW,242,7.0,11.0,65,0.00,,,0.00,Wunderground v.1.15,2013-04-11 16:17:00,
2013-04-11 12:18:00,73.0,60.5,29.83,WSW,258,7.0,11.0,65,0.00,,,0.00,Wunderground v.1.15,2013-04-11 16:18:00,
2013-04-11 12:21:00,72.9,60.4,29.83,WNW,292,6.0,9.0,65,0.00,,,0.00,Wunderground v.1.15,2013-04-11 16:21:00,
2013-04-11 12:22:00,72.9,60.4,29.83,WNW,295,5.0,9.0,65,0.00,,,0.00,Wunderground v.1.15,2013-04-11 16:22:00,
2013-04-11 12:23:00,72.9,60.4,29.83,West,281,4.0,9.0,65,0.00,,,0.00,Wunderground v.1.15,2013-04-11 16:23:00,
2013-04-11 12:27:00,72.7,60.3,29.83,WNW,294,5.0,9.0,65,0.00,,,0.00,Wunderground v.1.15,2013-04-11 16:27:00,
2013-04-11 12:28:00,72.7,60.7,29.83,West,270,5.0,9.0,66,0.00,,,0.00,Wunderground v.1.15,2013-04-11 16:28:00,
2013-04-11 12:29:00,72.7,60.3,29.83,WNW,288,5.0,9.0,65,0.00,,,0.00,Wunderground v.1.15,2013-04-11 16:29:00,
2013-04-11 12:32:00,72.9,60.4,29.83,NW,315,5.0,9.0,65,0.00,,,0.00,Wunderground v.1.15,2013-04-11 16:32:00,
2013-04-11 12:33:00,72.9,60.4,29.83,WNW,300,5.0,9.0,65,0.00,,,0.00,Wunderground v.1.15,2013-04-11 16:33:00,
2013-04-11 12:34:00,73.0,60.5,29.83,WNW,297,5.0,9.0,65,0.00,,,0.00,Wunderground v.1.15,2013-04-11 16:34:00,
2013-04-11 12:39:00,73.4,60.9,29.82,SW,234,5.0,9.0,65,0.00,,,0.00,Wunderground v.1.15,2013-04-11 16:39:00,
2013-04-11 12:40:00,73.3,60.4,29.82,West,267,5.0,5.0,64,0.00,,,0.00,Wunderground v.1.15,2013-04-11 16:40:00,
2013-04-11 12:42:00,73.3,60.4,29.82,NNW,327,5.0,9.0,64,0.00,,,0.00,Wunderground v.1.15,2013-04-11 16:42:00,
2013-04-11 12:43:00,73.3,60.4,29.82,NW,326,4.0,9.0,64,0.00,,,0.00,Wunderground v.1.15,2013-04-11 16:43:00,
2013-04-11 12:48:00,73.1,60.6,29.81,West,278,4.0,9.0,65,0.00,,,0.00,Wunderground v.1.15,2013-04-11 16:48:00,
2013-04-11 12:49:00,73.0,60.5,29.81,West,269,4.0,9.0,65,0.00,,,0.00,Wunderground v.1.15,2013-04-11 16:49:00,
2013-04-11 12:50:00,73.0,60.5,29.81,WNW,295,3.0,3.0,65,0.00,,,0.00,Wunderground v.1.15,2013-04-11 16:50:00,
2013-04-11 12:51:00,73.0,60.5,29.81,WNW,300,3.0,9.0,65,0.00,,,0.00,Wunderground v.1.15,2013-04-11 16:51:00,
2013-04-11 12:55:00,73.0,60.5,29.81,WNW,284,3.0,9.0,65,0.00,,,0.00,Wunderground v.1.15,2013-04-11 16:55:00,
2013-04-11 12:57:00,72.9,60.4,29.81,WNW,296,3.0,9.0,65,0.00,,,0.00,Wunderground v.1.15,2013-04-11 16:57:00,
2013-04-11 12:59:00,72.9,60.4,29.81,West,267,3.0,9.0,65,0.00,,,0.00,Wunderground v.1.15,2013-04-11 16:59:00,
2013-04-11 13:02:00,72.8,60.8,29.81,NW,306,3.0,9.0,66,0.00,,,0.00,Wunderground v.1.15,2013-04-11 17:02:00,
2013-04-11 13:04:00,72.8,60.3,29.81,NW,309,4.0,9.0,65,0.00,,,0.00,Wunderground v.1.15,2013-04-11 17:04:00,
2013-04-11 13:05:00,72.7,60.3,29.81,WNW,288,3.0,9.0,65,0.00,,,0.00,Wunderground v.1.15,2013-04-11 17:05:00,
2013-04-11 13:06:00,72.7,60.7,29.81,WNW,288,3.0,9.0,66,0.00,,,0.00,Wunderground v.1.15,2013-04-11 17:06:00,
2013-04-11 13:08:00,72.6,60.6,29.81,West,281,3.0,9.0,66,0.00,,,0.00,Wunderground v.1.15,2013-04-11 17:08:00,
2013-04-11 13:10:00,72.6,60.2,29.81,SW,232,3.0,9.0,65,0.00,,,0.00,Wunderground v.1.15,2013-04-11 17:10:00,
2013-04-11 13:13:00,72.6,60.2,29.81,WNW,284,3.0,9.0,65,0.00,,,0.00,Wunderground v.1.15,2013-04-11 17:13:00,
2013-04-11 13:14:00,72.6,60.2,29.81,West,279,2.0,9.0,65,0.00,,,0.00,Wunderground v.1.15,2013-04-11 17:14:00,
2013-04-11 13:16:00,72.6,60.6,29.80,WNW,285,2.0,9.0,66,0.00,,,0.00,Wunderground v.1.15,2013-04-11 17:16:00,
2013-04-11 13:20:00,72.6,60.6,29.80,West,269,2.0,9.0,66,0.00,,,0.00,Wunderground v.1.15,2013-04-11 17:20:00,
2013-04-11 13:21:00,72.6,60.6,29.80,WNW,300,2.0,9.0,66,0.00,,,0.00,Wunderground v.1.15,2013-04-11 17:21:00,
2013-04-11 13:23:00,72.6,60.6,29.80,WNW,302,1.0,9.0,66,0.00,,,0.00,Wunderground v.1.15,2013-04-11 17:23:00,
2013-04-11 13:27:00,72.9,60.9,29.80,WSW,242,1.0,9.0,66,0.00,,,0.00,Wunderground v.1.15,2013-04-11 17:27:00,
2013-04-11 13:30:00,72.9,60.9,29.79,NW,304,2.0,2.0,66,0.00,,,0.00,Wunderground v.1.15,2013-04-11 17:30:00,
2013-04-11 13:31:00,73.0,61.0,29.79,NW,304,1.0,9.0,66,0.00,,,0.00,Wunderground v.1.15,2013-04-11 17:31:00,
2013-04-11 13:33:00,73.2,60.7,29.79,West,275,2.0,9.0,65,0.00,,,0.00,Wunderground v.1.15,2013-04-11 17:33:00,
2013-04-11 13:37:00,73.4,60.5,29.78,NW,310,2.0,9.0,64,0.00,,,0.00,Wunderground v.1.15,2013-04-11 17:37:00,
2013-04-11 13:38:00,73.5,60.1,29.78,WSW,242,1.0,9.0,63,0.00,,,0.00,Wunderground v.1.15,2013-04-11 17:38:00,
2013-04-11 13:42:00,73.7,60.3,29.78,NW,309,1.0,9.0,63,0.00,,,0.00,Wunderground v.1.15,2013-04-11 17:42:00,
2013-04-11 13:44:00,73.7,59.9,29.78,NW,324,2.0,9.0,62,0.00,,,0.00,Wunderground v.1.15,2013-04-11 17:44:00,
2013-04-11 13:47:00,73.9,60.5,29.78,WNW,295,2.0,9.0,63,0.00,,,0.00,Wunderground v.1.15,2013-04-11 17:47:00,
2013-04-11 13:49:00,73.9,60.1,29.78,NW,312,2.0,9.0,62,0.00,,,0.00,Wunderground v.1.15,2013-04-11 17:49:00,
2013-04-11 13:54:00,74.3,60.4,29.77,WNW,292,2.0,9.0,62,0.00,,,0.00,Wunderground v.1.15,2013-04-11 17:54:00,
2013-04-11 13:55:00,74.4,60.5,29.77,West,266,2.0,9.0,62,0.00,,,0.00,Wunderground v.1.15,2013-04-11 17:55:00,
2013-04-11 13:57:00,74.7,61.3,29.77,West,277,2.0,9.0,63,0.00,,,0.00,Wunderground v.1.15,2013-04-11 17:57:00,
2013-04-11 13:59:00,74.9,60.5,29.77,WNW,303,2.0,9.0,61,0.00,,,0.00,Wunderground v.1.15,2013-04-11 17:59:00,
2013-04-11 14:01:00,74.9,60.5,29.77,NW,320,2.0,9.0,61,0.00,,,0.00,Wunderground v.1.15,2013-04-11 18:01:00,
2013-04-11 14:05:00,75.4,60.5,29.76,WNW,298,3.0,9.0,60,0.00,,,0.00,Wunderground v.1.15,2013-04-11 18:05:00,
2013-04-11 14:07:00,75.4,60.5,29.76,WSW,258,3.0,9.0,60,0.00,,,0.00,Wunderground v.1.15,2013-04-11 18:07:00,
2013-04-11 14:08:00,75.3,60.5,29.76,West,271,2.0,9.0,60,0.00,,,0.00,Wunderground v.1.15,2013-04-11 18:08:00,
2013-04-11 14:11:00,75.3,60.5,29.76,SSW,192,2.0,9.0,60,0.00,,,0.00,Wunderground v.1.15,2013-04-11 18:11:00,
2013-04-11 14:13:00,75.3,60.9,29.75,NW,309,2.0,9.0,61,0.00,,,0.00,Wunderground v.1.15,2013-04-11 18:13:00,
2013-04-11 14:14:00,75.3,60.5,29.75,NW,309,2.0,9.0,60,0.00,,,0.00,Wunderground v.1.15,2013-04-11 18:14:00,
2013-04-11 14:17:00,75.5,60.6,29.75,SSW,198,1.0,9.0,60,0.00,,,0.00,Wunderground v.1.15,2013-04-11 18:17:00,
2013-04-11 14:20:00,75.7,60.4,29.75,WNW,284,2.0,2.0,59,0.00,,,0.00,Wunderground v.1.15,2013-04-11 18:20:00,
2013-04-11 14:22:00,76.0,61.1,29.75,WSW,250,2.0,7.0,60,0.00,,,0.00,Wunderground v.1.15,2013-04-11 18:22:00,
2013-04-11 14:23:00,76.0,60.6,29.74,WSW,254,3.0,9.0,59,0.00,,,0.00,Wunderground v.1.15,2013-04-11 18:23:00,
2013-04-11 14:27:00,76.5,60.1,29.74,West,271,3.0,9.0,57,0.00,,,0.00,Wunderground v.1.15,2013-04-11 18:27:00,
2013-04-11 14:28:00,76.6,60.2,29.74,WNW,303,3.0,9.0,57,0.00,,,0.00,Wunderground v.1.15,2013-04-11 18:28:00,
2013-04-11 14:32:00,76.4,60.0,29.74,WNW,302,3.0,9.0,57,0.00,,,0.00,Wunderground v.1.15,2013-04-11 18:32:00,
2013-04-11 14:33:00,76.4,60.0,29.74,WNW,290,3.0,9.0,57,0.00,,,0.00,Wunderground v.1.15,2013-04-11 18:33:00,
2013-04-11 14:34:00,76.4,60.0,29.73,West,271,3.0,9.0,57,0.00,,,0.00,Wunderground v.1.15,2013-04-11 18:34:00,
2013-04-11 14:38:00,76.5,60.1,29.73,WNW,300,3.0,9.0,57,0.00,,,0.00,Wunderground v.1.15,2013-04-11 18:38:00,
2013-04-11 14:39:00,76.6,59.7,29.73,NW,311,3.0,9.0,56,0.00,,,0.00,Wunderground v.1.15,2013-04-11 18:39:00,
2013-04-11 14:42:00,77.0,60.6,29.73,SSW,192,2.0,9.0,57,0.00,,,0.00,Wunderground v.1.15,2013-04-11 18:42:00,
2013-04-11 14:43:00,77.2,61.8,29.73,SW,218,2.0,9.0,59,0.00,,,0.00,Wunderground v.1.15,2013-04-11 18:43:00,
2013-04-11 14:44:00,77.3,61.4,29.73,SW,218,2.0,9.0,58,0.00,,,0.00,Wunderground v.1.15,2013-04-11 18:44:00,
2013-04-11 14:49:00,78.1,60.6,29.72,NNW,339,0.0,9.0,55,0.00,,,0.00,Wunderground v.1.15,2013-04-11 18:49:00,
2013-04-11 14:50:00,78.2,61.2,29.72,North,360,0.0,9.0,56,0.00,,,0.00,Wunderground v.1.15,2013-04-11 18:50:00,
2013-04-11 14:54:00,78.1,60.6,29.72,West,277,0.0,9.0,55,0.00,,,0.00,Wunderground v.1.15,2013-04-11 18:54:00,
2013-04-11 14:56:00,77.7,60.2,29.72,WNW,288,0.0,9.0,55,0.00,,,0.00,Wunderground v.1.15,2013-04-11 18:56:00,
2013-04-11 14:57:00,77.5,60.1,29.72,West,266,1.0,9.0,55,0.00,,,0.00,Wunderground v.1.15,2013-04-11 18:57:00,
2013-04-11 14:58:00,77.3,59.9,29.72,WNW,302,1.0,9.0,55,0.00,,,0.00,Wunderground v.1.15,2013-04-11 18:58:00,
2013-04-11 14:59:00,77.1,60.2,29.72,WNW,296,1.0,9.0,56,0.00,,,0.00,Wunderground v.1.15,2013-04-11 18:59:00,
2013-04-11 15:02:00,76.7,60.3,29.71,NW,311,2.0,9.0,57,0.00,,,0.00,Wunderground v.1.15,2013-04-11 19:02:00,
2013-04-11 15:03:00,76.6,60.7,29.71,NW,311,2.0,9.0,58,0.00,,,0.00,Wunderground v.1.15,2013-04-11 19:03:00,
2013-04-11 15:04:00,76.6,61.2,29.71,North,355,1.0,9.0,59,0.00,,,0.00,Wunderground v.1.15,2013-04-11 19:04:00,
2013-04-11 15:08:00,76.5,60.6,29.71,NNW,336,1.0,9.0,58,0.00,,,0.00,Wunderground v.1.15,2013-04-11 19:08:00,
2013-04-11 15:09:00,76.5,61.1,29.71,NW,308,1.0,9.0,59,0.00,,,0.00,Wunderground v.1.15,2013-04-11 19:09:00,
2013-04-11 15:11:00,76.4,60.5,29.71,NW,304,1.0,9.0,58,0.00,,,0.00,Wunderground v.1.15,2013-04-11 19:11:00,
2013-04-11 15:14:00,76.4,60.5,29.70,NNW,329,1.0,9.0,58,0.00,,,0.00,Wunderground v.1.15,2013-04-11 19:14:00,
2013-04-11 15:15:00,76.4,61.0,29.70,NNW,327,1.0,9.0,59,0.00,,,0.00,Wunderground v.1.15,2013-04-11 19:15:00,
2013-04-11 15:18:00,76.2,60.8,29.71,NW,313,1.0,9.0,59,0.00,,,0.00,Wunderground v.1.15,2013-04-11 19:18:00,
2013-04-11 15:20:00,76.2,60.3,29.70,NW,313,1.0,1.0,58,0.00,,,0.00,Wunderground v.1.15,2013-04-11 19:20:00,
2013-04-11 15:21:00,76.1,60.7,29.70,NW,313,1.0,9.0,59,0.00,,,0.00,Wunderground v.1.15,2013-04-11 19:21:00,
2013-04-11 15:26:00,75.8,60.4,29.70,NNW,335,1.0,9.0,59,0.00,,,0.00,Wunderground v.1.15,2013-04-11 19:26:00,
2013-04-11 15:27:00,75.7,59.9,29.70,NNW,327,1.0,9.0,58,0.00,,,0.00,Wunderground v.1.15,2013-04-11 19:27:00,
2013-04-11 15:28:00,75.6,59.8,29.70,NNW,329,1.0,9.0,58,0.00,,,0.00,Wunderground v.1.15,2013-04-11 19:28:00,
2013-04-11 15:30:00,75.5,60.2,29.69,NNW,329,1.0,1.0,59,0.00,,,0.00,Wunderground v.1.15,2013-04-11 19:30:00,
2013-04-11 15:31:00,75.5,60.2,29.69,NNW,329,1.0,9.0,59,0.00,,,0.00,Wunderground v.1.15,2013-04-11 19:31:00,
2013-04-11 15:32:00,75.4,60.1,29.69,NNW,329,1.0,9.0,59,0.00,,,0.00,Wunderground v.1.15,2013-04-11 19:32:00,
2013-04-11 15:34:00,75.4,60.1,29.69,NNW,329,0.0,9.0,59,0.00,,,0.00,Wunderground v.1.15,2013-04-11 19:34:00,
2013-04-11 15:37:00,75.3,60.0,29.69,NNW,329,0.0,9.0,59,0.00,,,0.00,Wunderground v.1.15,2013-04-11 19:37:00,
2013-04-11 15:38:00,75.4,60.5,29.69,NNW,329,0.0,9.0,60,0.00,,,0.00,Wunderground v.1.15,2013-04-11 19:38:00,
2013-04-11 15:39:00,75.3,60.5,29.69,NNW,329,0.0,9.0,60,0.00,,,0.00,Wunderground v.1.15,2013-04-11 19:39:00,
2013-04-11 15:42:00,75.3,60.0,29.69,NNW,329,0.0,9.0,59,0.00,,,0.00,Wunderground v.1.15,2013-04-11 19:42:00,
2013-04-11 15:43:00,75.3,60.5,29.69,NNW,329,0.0,9.0,60,0.00,,,0.00,Wunderground v.1.15,2013-04-11 19:43:00,
2013-04-11 15:44:00,75.3,60.5,29.69,NNW,329,0.0,9.0,60,0.00,,,0.00,Wunderground v.1.15,2013-04-11 19:44:00,
2013-04-11 15:49:00,75.5,60.6,29.68,NNW,329,0.0,9.0,60,0.00,,,0.00,Wunderground v.1.15,2013-04-11 19:49:00,
2013-04-11 15:51:00,75.6,61.2,29.68,NNW,329,0.0,9.0,61,0.00,,,0.00,Wunderground v.1.15,2013-04-11 19:51:00,
2013-04-11 15:52:00,75.7,61.8,29.68,NNW,329,0.0,9.0,62,0.00,,,0.00,Wunderground v.1.15,2013-04-11 19:52:00,
2013-04-11 15:56:00,76.0,61.1,29.68,NE,55,0.0,9.0,60,0.00,,,0.00,Wunderground v.1.15,2013-04-11 19:56:00,
2013-04-11 15:58:00,76.1,61.7,29.68,NNE,29,0.0,9.0,61,0.00,,,0.00,Wunderground v.1.15,2013-04-11 19:58:00,
2013-04-11 16:01:00,76.1,60.7,29.68,North,9,0.0,9.0,59,0.00,,,0.00,Wunderground v.1.15,2013-04-11 20:01:00,
2013-04-11 16:02:00,76.0,61.1,29.68,North,355,0.0,9.0,60,0.00,,,0.00,Wunderground v.1.15,2013-04-11 20:02:00,
2013-04-11 16:03:00,76.0,61.6,29.68,North,355,0.0,9.0,61,0.00,,,0.00,Wunderground v.1.15,2013-04-11 20:03:00,
2013-04-11 16:08:00,75.8,60.9,29.68,NNW,340,0.0,9.0,60,0.00,,,0.00,Wunderground v.1.15,2013-04-11 20:08:00,
2013-04-11 16:09:00,75.8,62.3,29.68,NNW,344,0.0,9.0,63,0.00,,,0.00,Wunderground v.1.15,2013-04-11 20:09:00,
2013-04-11 16:14:00,76.1,62.6,29.68,NW,324,0.0,9.0,63,0.00,,,0.00,Wunderground v.1.15,2013-04-11 20:14:00,
2013-04-11 16:15:00,76.0,62.9,29.68,NW,310,0.0,9.0,64,0.00,,,0.00,Wunderground v.1.15,2013-04-11 20:15:00,
2013-04-11 16:16:00,76.0,63.4,29.68,NW,310,1.0,9.0,65,0.00,,,0.00,Wunderground v.1.15,2013-04-11 20:16:00,
2013-04-11 16:21:00,74.9,62.8,29.68,NW,313,2.0,9.0,66,0.00,,,0.00,Wunderground v.1.15,2013-04-11 20:21:00,
2013-04-11 16:22:00,74.7,62.6,29.68,NNW,344,2.0,9.0,66,0.00,,,0.00,Wunderground v.1.15,2013-04-11 20:22:00,
2013-04-11 16:25:00,74.3,63.1,29.68,NNW,340,1.0,9.0,68,0.00,,,0.00,Wunderground v.1.15,2013-04-11 20:25:00,
2013-04-11 16:26:00,74.3,63.1,29.68,NNE,31,1.0,9.0,68,0.00,,,0.00,Wunderground v.1.15,2013-04-11 20:26:00,
2013-04-11 16:28:00,74.2,62.5,29.68,NNE,19,1.0,9.0,67,0.00,,,0.00,Wunderground v.1.15,2013-04-11 20:28:00,
2013-04-11 16:30:00,74.3,63.1,29.68,NNE,19,0.0,9.0,68,0.00,,,0.00,Wunderground v.1.15,2013-04-11 20:30:00,
2013-04-11 16:32:00,74.4,63.1,29.67,NNE,19,0.0,9.0,68,0.00,,,0.00,Wunderground v.1.15,2013-04-11 20:32:00,
2013-04-11 16:35:00,74.6,62.5,29.66,East,85,0.0,9.0,66,0.00,,,0.00,Wunderground v.1.15,2013-04-11 20:35:00,
2013-04-11 16:36:00,74.6,62.5,29.66,East,83,0.0,9.0,66,0.00,,,0.00,Wunderground v.1.15,2013-04-11 20:36:00,
2013-04-11 16:40:00,75.0,63.3,29.66,ENE,74,0.0,9.0,67,0.00,,,0.00,Wunderground v.1.15,2013-04-11 20:40:00,
2013-04-11 16:41:00,75.1,63.0,29.66,ENE,69,0.0,9.0,66,0.00,,,0.00,Wunderground v.1.15,2013-04-11 20:41:00,
2013-04-11 16:42:00,75.2,63.1,29.66,ENE,68,0.0,9.0,66,0.00,,,0.00,Wunderground v.1.15,2013-04-11 20:42:00,
2013-04-11 16:44:00,75.5,63.3,29.66,NE,43,0.0,9.0,66,0.00,,,0.00,Wunderground v.1.15,2013-04-11 20:44:00,
2013-04-11 16:47:00,75.9,63.3,29.66,NNE,33,0.0,9.0,65,0.00,,,0.00,Wunderground v.1.15,2013-04-11 20:47:00,
2013-04-11 16:48:00,75.9,62.8,29.65,NNE,33,0.0,9.0,64,0.00,,,0.00,Wunderground v.1.15,2013-04-11 20:48:00,
2013-04-11 16:52:00,76.2,63.6,29.65,North,5,0.0,9.0,65,0.00,,,0.00,Wunderground v.1.15,2013-04-11 20:52:00,
2013-04-11 16:53:00,76.2,63.1,29.65,North,5,0.0,9.0,64,0.00,,,0.00,Wunderground v.1.15,2013-04-11 20:53:00,
2013-04-11 16:55:00,76.2,63.6,29.65,North,360,0.0,9.0,65,0.00,,,0.00,Wunderground v.1.15,2013-04-11 20:55:00,
2013-04-11 17:01:00,76.2,61.8,29.65,North,360,0.0,9.0,61,0.00,,,0.00,Wunderground v.1.15,2013-04-11 21:01:00,
2013-04-11 17:02:00,76.2,62.7,29.64,North,360,0.0,9.0,63,0.00,,,0.00,Wunderground v.1.15,2013-04-11 21:02:00,
2013-04-11 17:03:00,76.3,62.8,29.64,North,360,0.0,9.0,63,0.00,,,0.00,Wunderground v.1.15,2013-04-11 21:03:00,
2013-04-11 17:06:00,76.5,63.0,29.64,North,360,0.0,9.0,63,0.00,,,0.00,Wunderground v.1.15,2013-04-11 21:06:00,
2013-04-11 17:07:00,76.6,63.1,29.64,North,360,0.0,9.0,63,0.00,,,0.00,Wunderground v.1.15,2013-04-11 21:07:00,
2013-04-11 17:09:00,76.6,62.6,29.64,North,360,0.0,9.0,62,0.00,,,0.00,Wunderground v.1.15,2013-04-11 21:09:00,
2013-04-11 17:11:00,76.7,62.2,29.64,NNE,24,0.0,9.0,61,0.00,,,0.00,Wunderground v.1.15,2013-04-11 21:11:00,
2013-04-11 17:15:00,76.7,62.2,29.63,NNE,24,0.0,9.0,61,0.00,,,0.00,Wunderground v.1.15,2013-04-11 21:15:00,
2013-04-11 17:16:00,76.7,62.2,29.63,NNE,24,0.0,9.0,61,0.00,,,0.00,Wunderground v.1.15,2013-04-11 21:16:00,
2013-04-11 17:19:00,76.7,61.8,29.63,NNE,24,0.0,9.0,60,0.00,,,0.00,Wunderground v.1.15,2013-04-11 21:19:00,
2013-04-11 17:22:00,76.7,62.2,29.63,NNE,24,0.0,9.0,61,0.00,,,0.00,Wunderground v.1.15,2013-04-11 21:22:00,
2013-04-11 17:23:00,76.7,62.2,29.63,NNE,24,0.0,9.0,61,0.00,,,0.00,Wunderground v.1.15,2013-04-11 21:23:00,
2013-04-11 17:25:00,76.8,62.8,29.63,NNE,24,0.0,9.0,62,0.00,,,0.00,Wunderground v.1.15,2013-04-11 21:25:00,
2013-04-11 17:29:00,76.8,63.7,29.62,East,94,0.0,9.0,64,0.00,,,0.00,Wunderground v.1.15,2013-04-11 21:29:00,
2013-04-11 17:30:00,76.8,64.1,29.62,East,93,0.0,9.0,65,0.00,,,0.00,Wunderground v.1.15,2013-04-11 21:30:00,
2013-04-11 17:31:00,76.7,64.0,29.62,ENE,76,0.0,9.0,65,0.00,,,0.00,Wunderground v.1.15,2013-04-11 21:31:00,
2013-04-11 17:37:00,76.2,64.0,29.61,ENE,65,0.0,9.0,66,0.00,,,0.00,Wunderground v.1.15,2013-04-11 21:37:00,
2013-04-11 17:38:00,76.1,64.3,29.61,ENE,65,0.0,9.0,67,0.00,,,0.00,Wunderground v.1.15,2013-04-11 21:38:00,
2013-04-11 17:39:00,76.1,64.3,29.61,West,274,0.0,9.0,67,0.00,,,0.00,Wunderground v.1.15,2013-04-11 21:39:00,
2013-04-11 17:43:00,76.0,63.8,29.60,WNW,298,0.0,9.0,66,0.00,,,0.00,Wunderground v.1.15,2013-04-11 21:43:00,
2013-04-11 17:44:00,76.0,63.8,29.60,East,80,0.0,9.0,66,0.00,,,0.00,Wunderground v.1.15,2013-04-11 21:44:00,
2013-04-11 17:46:00,76.0,63.8,29.60,East,89,0.0,9.0,66,0.00,,,0.00,Wunderground v.1.15,2013-04-11 21:46:00,
2013-04-11 17:47:00,75.9,63.3,29.60,East,89,0.0,9.0,65,0.00,,,0.00,Wunderground v.1.15,2013-04-11 21:47:00,
2013-04-11 17:52:00,76.0,62.9,29.60,East,89,0.0,9.0,64,0.00,,,0.00,Wunderground v.1.15,2013-04-11 21:52:00,
2013-04-11 17:53:00,76.0,63.4,29.60,East,89,0.0,9.0,65,0.00,,,0.00,Wunderground v.1.15,2013-04-11 21:53:00,
2013-04-11 17:55:00,76.0,63.4,29.60,East,89,0.0,9.0,65,0.00,,,0.00,Wunderground v.1.15,2013-04-11 21:55:00,
2013-04-11 17:57:00,75.9,63.7,29.60,ESE,119,0.0,9.0,66,0.00,,,0.00,Wunderground v.1.15,2013-04-11 21:57:00,
2013-04-11 18:03:00,75.3,63.6,29.59,ESE,111,0.0,9.0,67,0.00,,,0.00,Wunderground v.1.15,2013-04-11 22:03:00,
2013-04-11 18:04:00,75.2,63.5,29.59,ESE,112,0.0,9.0,67,0.00,,,0.00,Wunderground v.1.15,2013-04-11 22:04:00,
2013-04-11 18:06:00,75.0,63.3,29.59,ESE,111,0.0,9.0,67,0.00,,,0.00,Wunderground v.1.15,2013-04-11 22:06:00,
2013-04-11 18:08:00,74.8,63.5,29.59,ESE,111,0.0,9.0,68,0.00,,,0.00,Wunderground v.1.15,2013-04-11 22:08:00,
2013-04-11 18:10:00,74.7,63.0,29.59,ESE,111,0.0,9.0,67,0.00,,,0.00,Wunderground v.1.15,2013-04-11 22:10:00,
2013-04-11 18:14:00,74.4,63.6,29.58,ESE,111,0.0,9.0,69,0.00,,,0.00,Wunderground v.1.15,2013-04-11 22:14:00,
2013-04-11 18:15:00,74.3,63.5,29.58,ESE,111,0.0,9.0,69,0.00,,,0.00,Wunderground v.1.15,2013-04-11 22:15:00,
2013-04-11 18:16:00,74.3,63.5,29.58,ESE,111,0.0,9.0,69,0.00,,,0.00,Wunderground v.1.15,2013-04-11 22:16:00,
2013-04-11 18:17:00,74.2,63.4,29.58,ESE,111,0.0,9.0,69,0.00,,,0.00,Wunderground v.1.15,2013-04-11 22:17:00,
2013-04-11 18:21:00,74.0,63.2,29.58,SE,144,0.0,9.0,69,0.00,,,0.00,Wunderground v.1.15,2013-04-11 22:21:00,
2013-04-11 18:22:00,74.0,63.2,29.58,SE,144,0.0,9.0,69,0.00,,,0.00,Wunderground v.1.15,2013-04-11 22:22:00,
2013-04-11 18:24:00,73.9,62.7,29.58,SE,144,0.0,9.0,68,0.00,,,0.00,Wunderground v.1.15,2013-04-11 22:24:00,
2013-04-11 18:25:00,73.9,62.7,29.58,SE,144,0.0,9.0,68,0.00,,,0.00,Wunderground v.1.15,2013-04-11 22:25:00,
2013-04-11 18:27:00,73.8,62.6,29.59,NNW,328,0.0,9.0,68,0.00,,,0.00,Wunderground v.1.15,2013-04-11 22:27:00,
2013-04-11 18:29:00,73.6,62.8,29.59,NNW,328,0.0,9.0,69,0.00,,,0.00,Wunderground v.1.15,2013-04-11 22:29:00,
2013-04-11 18:30:00,73.4,62.6,29.59,NNW,328,0.0,9.0,69,0.00,,,0.00,Wunderground v.1.15,2013-04-11 22:30:00,
2013-04-11 18:32:00,73.2,62.0,29.60,NW,313,1.0,9.0,68,0.00,,,0.00,Wunderground v.1.15,2013-04-11 22:32:00,
2013-04-11 18:35:00,72.2,62.3,29.61,North,9,4.0,15.0,71,0.00,,,0.00,Wunderground v.1.15,2013-04-11 22:35:00,
2013-04-11 18:37:00,70.4,61.3,29.63,NW,323,7.0,15.0,73,0.00,,,0.00,Wunderground v.1.15,2013-04-11 22:37:00,
2013-04-11 18:38:00,69.5,61.6,29.63,NW,320,8.0,15.0,76,0.00,,,0.00,Wunderground v.1.15,2013-04-11 22:38:00,
2013-04-11 18:42:00,66.8,60.8,29.67,NW,304,13.0,16.0,81,0.00,,,0.01,Wunderground v.1.15,2013-04-11 22:42:00,
2013-04-11 18:45:00,64.1,59.8,29.68,NW,309,15.0,21.0,86,1.75,,,0.06,Wunderground v.1.15,2013-04-11 22:45:00,
2013-04-11 18:48:00,62.0,59.0,29.67,WNW,297,16.0,21.0,90,1.01,,,0.14,Wunderground v.1.15,2013-04-11 22:48:00,
2013-04-11 18:50:00,61.5,59.2,29.68,WNW,295,15.0,21.0,92,0.56,,,0.16,Wunderground v.1.15,2013-04-11 22:50:00,
2013-04-11 18:52:00,61.1,59.1,29.69,NW,306,15.0,21.0,93,0.42,,,0.17,Wunderground v.1.15,2013-04-11 22:52:00,
2013-04-11 18:56:00,60.7,58.7,29.70,NW,307,13.0,21.0,93,0.11,,,0.17,Wunderground v.1.15,2013-04-11 22:56:00,
2013-04-11 18:57:00,60.6,58.6,29.70,NNW,342,13.0,21.0,93,0.11,,,0.18,Wunderground v.1.15,2013-04-11 22:57:00,
2013-04-11 18:58:00,60.5,58.5,29.70,NW,317,12.0,21.0,93,0.11,,,0.18,Wunderground v.1.15,2013-04-11 22:58:00,
2013-04-11 19:02:00,60.2,58.5,29.71,NW,324,12.0,12.0,94,0.19,,,0.20,Wunderground v.1.15,2013-04-11 23:02:00,
2013-04-11 19:04:00,60.0,58.3,29.71,WNW,303,11.0,12.0,94,0.19,,,0.20,Wunderground v.1.15,2013-04-11 23:04:00,
2013-04-11 19:05:00,59.9,58.2,29.71,NW,317,11.0,12.0,94,0.17,,,0.20,Wunderground v.1.15,2013-04-11 23:05:00,
2013-04-11 19:07:00,59.8,57.8,29.71,WNW,292,11.0,13.0,93,0.14,,,0.21,Wunderground v.1.15,2013-04-11 23:07:00,
2013-04-11 19:09:00,59.7,57.7,29.71,NNW,330,11.0,13.0,93,0.14,,,0.21,Wunderground v.1.15,2013-04-11 23:09:00,
2013-04-11 19:11:00,59.5,57.5,29.71,NW,317,11.0,14.0,93,0.17,,,0.22,Wunderground v.1.15,2013-04-11 23:11:00,
2013-04-11 19:12:00,59.5,57.5,29.71,NNW,334,11.0,14.0,93,0.17,,,0.22,Wunderground v.1.15,2013-04-11 23:12:00,
2013-04-11 19:13:00,59.4,57.4,29.72,NW,323,12.0,14.0,93,0.18,,,0.23,Wunderground v.1.15,2013-04-11 23:13:00,
2013-04-11 19:16:00,59.2,57.2,29.72,NW,323,12.0,14.0,93,0.21,,,0.24,Wunderground v.1.15,2013-04-11 23:16:00,
2013-04-11 19:17:00,59.2,57.2,29.72,WNW,300,12.0,14.0,93,0.21,,,0.24,Wunderground v.1.15,2013-04-11 23:17:00,
2013-04-11 19:21:00,58.9,56.9,29.72,NW,313,12.0,12.0,93,0.26,,,0.26,Wunderground v.1.15,2013-04-11 23:21:00,
2013-04-11 19:22:00,58.9,57.2,29.72,NW,316,11.0,12.0,94,0.22,,,0.27,Wunderground v.1.15,2013-04-11 23:22:00,
2013-04-11 19:23:00,58.8,57.1,29.71,NW,319,11.0,12.0,94,0.22,,,0.27,Wunderground v.1.15,2013-04-11 23:23:00,
2013-04-11 19:29:00,58.7,57.0,29.72,NNW,343,10.0,12.0,94,0.26,,,0.30,Wunderground v.1.15,2013-04-11 23:29:00,
2013-04-11 19:30:00,58.6,56.9,29.72,NNW,338,9.0,12.0,94,0.26,,,0.30,Wunderground v.1.15,2013-04-11 23:30:00,
2013-04-11 19:31:00,58.7,57.0,29.72,NW,304,9.0,9.0,94,0.24,,,0.30,Wunderground v.1.15,2013-04-11 23:31:00,
2013-04-11 19:32:00,58.6,56.9,29.72,NW,319,8.0,9.0,94,0.23,,,0.31,Wunderground v.1.15,2013-04-11 23:32:00,
2013-04-11 19:34:00,58.6,57.2,29.71,NW,309,7.0,9.0,95,0.29,,,0.32,Wunderground v.1.15,2013-04-11 23:34:00,
2013-04-11 19:38:00,58.5,57.1,29.70,NNW,347,7.0,13.0,95,0.22,,,0.33,Wunderground v.1.15,2013-04-11 23:38:00,
2013-04-11 19:39:00,58.5,57.1,29.70,North,350,7.0,13.0,95,0.28,,,0.34,Wunderground v.1.15,2013-04-11 23:39:00,
2013-04-11 19:40:00,58.5,57.1,29.71,WNW,294,8.0,13.0,95,0.28,,,0.34,Wunderground v.1.15,2013-04-11 23:40:00,
2013-04-11 19:41:00,58.5,57.1,29.71,NNW,344,7.0,9.0,95,0.23,,,0.34,Wunderground v.1.15,2013-04-11 23:41:00,
2013-04-11 19:46:00,58.5,57.1,29.71,NNW,347,7.0,9.0,95,0.20,,,0.36,Wunderground v.1.15,2013-04-11 23:46:00,
2013-04-11 19:47:00,58.4,57.0,29.71,NNW,327,7.0,9.0,95,0.20,,,0.36,Wunderground v.1.15,2013-04-11 23:47:00,
2013-04-11 19:49:00,58.4,57.0,29.71,NNW,344,6.0,9.0,95,0.20,,,0.37,Wunderground v.1.15,2013-04-11 23:49:00,
2013-04-11 19:50:00,58.4,57.0,29.70,NW,323,6.0,9.0,95,0.26,,,0.38,Wunderground v.1.15,2013-04-11 23:50:00,
2013-04-11 19:53:00,58.4,57.0,29.70,NW,311,5.0,9.0,95,0.29,,,0.39,Wunderground v.1.15,2013-04-11 23:53:00,
2013-04-11 19:54:00,58.4,57.0,29.71,NW,311,5.0,9.0,95,0.40,,,0.40,Wunderground v.1.15,2013-04-11 23:54:00,
2013-04-11 19:58:00,58.3,56.9,29.70,NW,318,4.0,9.0,95,0.19,,,0.41,Wunderground v.1.15,2013-04-11 23:58:00,
2013-04-11 19:59:00,58.3,56.9,29.70,NW,319,4.0,9.0,95,0.16,,,0.41,Wunderground v.1.15,2013-04-11 23:59:00,
2013-04-11 20:01:00,58.3,56.9,29.70,North,9,3.0,9.0,95,0.12,,,0.41,Wunderground v.1.15,2013-04-12 00:01:00,
2013-04-11 20:06:00,58.3,57.2,29.70,NNW,337,3.0,9.0,96,0.11,,,0.42,Wunderground v.1.15,2013-04-12 00:06:00,
2013-04-11 20:11:00,58.3,57.2,29.70,NNW,345,3.0,9.0,96,0.06,,,0.42,Wunderground v.1.15,2013-04-12 00:11:00,
2013-04-11 20:12:00,58.3,57.2,29.69,North,350,4.0,9.0,96,0.05,,,0.42,Wunderground v.1.15,2013-04-12 00:12:00,
2013-04-11 20:13:00,58.3,57.2,29.69,North,5,4.0,9.0,96,0.05,,,0.42,Wunderground v.1.15,2013-04-12 00:13:00,
2013-04-11 20:17:00,58.3,57.2,29.70,NW,313,4.0,9.0,96,0.04,,,0.42,Wunderground v.1.15,2013-04-12 00:17:00,
2013-04-11 20:19:00,58.3,57.2,29.70,WNW,298,4.0,9.0,96,0.00,,,0.42,Wunderground v.1.15,2013-04-12 00:19:00,
2013-04-11 20:21:00,58.3,57.2,29.71,NW,315,3.0,9.0,96,0.00,,,0.42,Wunderground v.1.15,2013-04-12 00:21:00,
2013-04-11 20:23:00,58.3,57.2,29.70,NW,315,2.0,9.0,96,0.00,,,0.42,Wunderground v.1.15,2013-04-12 00:23:00,
2013-04-11 20:24:00,58.3,57.2,29.71,NW,315,2.0,9.0,96,0.00,,,0.43,Wunderground v.1.15,2013-04-12 00:24:00,
2013-04-11 20:27:00,58.4,57.3,29.71,NW,315,0.0,9.0,96,0.00,,,0.43,Wunderground v.1.15,2013-04-12 00:27:00,
2013-04-11 20:28:00,58.3,57.2,29.71,NW,315,0.0,9.0,96,0.15,,,0.44,Wunderground v.1.15,2013-04-12 00:28:00,
2013-04-11 20:32:00,58.3,57.2,29.71,NW,315,0.0,9.0,96,0.16,,,0.45,Wunderground v.1.15,2013-04-12 00:32:00,
2013-04-11 20:33:00,58.3,57.2,29.71,NW,315,0.0,9.0,96,0.27,,,0.46,Wunderground v.1.15,2013-04-12 00:33:00,
2013-04-11 20:36:00,58.2,57.1,29.71,NW,315,0.0,9.0,96,0.85,,,0.47,Wunderground v.1.15,2013-04-12 00:36:00,
2013-04-11 20:37:00,58.3,57.2,29.71,NW,315,0.0,9.0,96,0.47,,,0.48,Wunderground v.1.15,2013-04-12 00:37:00,
2013-04-11 20:38:00,58.2,57.1,29.71,NW,315,0.0,9.0,96,0.24,,,0.48,Wunderground v.1.15,2013-04-12 00:38:00,
2013-04-11 20:43:00,58.2,57.1,29.71,NW,315,0.0,9.0,96,0.16,,,0.49,Wunderground v.1.15,2013-04-12 00:43:00,
2013-04-11 20:44:00,58.2,57.1,29.71,NW,315,0.0,9.0,96,0.15,,,0.50,Wunderground v.1.15,2013-04-12 00:44:00,
2013-04-11 20:47:00,58.2,57.1,29.71,NW,315,0.0,9.0,96,0.15,,,0.50,Wunderground v.1.15,2013-04-12 00:47:00,
2013-04-11 20:50:00,58.2,57.1,29.72,NW,315,0.0,9.0,96,0.09,,,0.50,Wunderground v.1.15,2013-04-12 00:50:00,
2013-04-11 20:52:00,58.2,57.4,29.72,West,259,0.0,9.0,97,0.07,,,0.50,Wunderground v.1.15,2013-04-12 00:52:00,
2013-04-11 20:55:00,58.2,57.4,29.73,West,259,0.0,9.0,97,0.05,,,0.51,Wunderground v.1.15,2013-04-12 00:55:00,
2013-04-11 20:57:00,58.2,57.4,29.73,NW,314,0.0,9.0,97,0.05,,,0.51,Wunderground v.1.15,2013-04-12 00:57:00,
2013-04-11 20:59:00,58.2,57.4,29.73,WNW,292,0.0,9.0,97,0.14,,,0.52,Wunderground v.1.15,2013-04-12 00:59:00,
2013-04-11 21:02:00,58.2,57.4,29.73,NW,309,0.0,9.0,97,0.14,,,0.52,Wunderground v.1.15,2013-04-12 01:02:00,
2013-04-11 21:03:00,58.1,57.3,29.73,NW,309,0.0,9.0,97,0.14,,,0.52,Wunderground v.1.15,2013-04-12 01:03:00,
2013-04-11 21:05:00,58.1,57.3,29.73,WSW,250,0.0,9.0,97,0.12,,,0.53,Wunderground v.1.15,2013-04-12 01:05:00,
2013-04-11 21:07:00,58.1,57.3,29.73,West,265,0.0,9.0,97,0.12,,,0.53,Wunderground v.1.15,2013-04-12 01:07:00,
2013-04-11 21:09:00,58.1,57.3,29.73,WSW,245,0.0,9.0,97,0.14,,,0.54,Wunderground v.1.15,2013-04-12 01:09:00,
2013-04-11 21:11:00,58.1,57.3,29.73,WSW,242,0.0,9.0,97,0.14,,,0.54,Wunderground v.1.15,2013-04-12 01:11:00,
2013-04-11 21:12:00,58.1,57.3,29.72,WSW,242,0.0,9.0,97,0.14,,,0.54,Wunderground v.1.15,2013-04-12 01:12:00,
2013-04-11 21:16:00,58.1,57.3,29.72,WSW,242,0.0,9.0,97,0.12,,,0.55,Wunderground v.1.15,2013-04-12 01:16:00,
2013-04-11 21:19:00,58.1,57.3,29.72,WSW,242,0.0,9.0,97,0.17,,,0.56,Wunderground v.1.15,2013-04-12 01:19:00,
2013-04-11 21:20:00,58.1,57.3,29.71,WSW,242,0.0,9.0,97,0.17,,,0.56,Wunderground v.1.15,2013-04-12 01:20:00,
2013-04-11 21:23:00,58.2,57.4,29.70,WSW,242,0.0,9.0,97,0.14,,,0.57,Wunderground v.1.15,2013-04-12 01:23:00,
2013-04-11 21:27:00,58.2,57.4,29.69,WSW,242,0.0,9.0,97,0.21,,,0.58,Wunderground v.1.15,2013-04-12 01:27:00,
2013-04-11 21:28:00,58.2,57.4,29.69,SW,231,0.0,9.0,97,0.14,,,0.58,Wunderground v.1.15,2013-04-12 01:28:00,
2013-04-11 21:32:00,58.1,57.3,29.69,SW,231,0.0,9.0,97,0.12,,,0.59,Wunderground v.1.15,2013-04-12 01:32:00,
2013-04-11 21:34:00,58.1,57.3,29.69,SW,231,0.0,9.0,97,0.16,,,0.60,Wunderground v.1.15,2013-04-12 01:34:00,
2013-04-11 21:37:00,58.1,57.3,29.69,SW,231,0.0,9.0,97,0.14,,,0.60,Wunderground v.1.15,2013-04-12 01:37:00,
2013-04-11 21:38:00,58.1,57.3,29.69,SW,230,0.0,9.0,97,0.11,,,0.60,Wunderground v.1.15,2013-04-12 01:38:00,
2013-04-11 21:39:00,58.0,57.2,29.68,SW,230,0.0,9.0,97,0.11,,,0.61,Wunderground v.1.15,2013-04-12 01:39:00,
2013-04-11 21:40:00,58.0,57.2,29.69,SW,230,0.0,9.0,97,0.11,,,0.61,Wunderground v.1.15,2013-04-12 01:40:00,
2013-04-11 21:43:00,58.0,57.2,29.69,SW,229,0.0,9.0,97,0.11,,,0.61,Wunderground v.1.15,2013-04-12 01:43:00,
2013-04-11 21:45:00,58.0,57.2,29.68,SW,226,0.0,9.0,97,0.10,,,0.62,Wunderground v.1.15,2013-04-12 01:45:00,
2013-04-11 21:46:00,58.0,57.4,29.68,SW,226,0.0,9.0,98,0.10,,,0.62,Wunderground v.1.15,2013-04-12 01:46:00,
2013-04-11 21:50:00,58.0,57.4,29.69,SSE,161,0.0,9.0,98,0.10,,,0.62,Wunderground v.1.15,2013-04-12 01:50:00,
2013-04-11 21:52:00,57.9,57.3,29.69,SSE,151,0.0,9.0,98,0.08,,,0.63,Wunderground v.1.15,2013-04-12 01:52:00,
2013-04-11 21:54:00,57.9,57.3,29.69,SSE,147,0.0,9.0,98,0.08,,,0.63,Wunderground v.1.15,2013-04-12 01:54:00,
2013-04-11 21:55:00,57.9,57.3,29.69,SSE,147,0.0,9.0,98,0.08,,,0.63,Wunderground v.1.15,2013-04-12 01:55:00,
2013-04-11 21:58:00,57.9,57.3,29.68,ESE,123,0.0,9.0,98,0.10,,,0.64,Wunderground v.1.15,2013-04-12 01:58:00,
2013-04-11 21:59:00,58.0,57.4,29.68,SE,136,0.0,9.0,98,0.10,,,0.64,Wunderground v.1.15,2013-04-12 01:59:00,
2013-04-11 22:02:00,57.9,57.3,29.67,ESE,109,0.0,9.0,98,0.10,,,0.64,Wunderground v.1.15,2013-04-12 02:02:00,
2013-04-11 22:04:00,57.9,57.3,29.67,SE,140,0.0,9.0,98,0.12,,,0.65,Wunderground v.1.15,2013-04-12 02:04:00,
2013-04-11 22:05:00,57.9,57.3,29.67,SSE,147,0.0,9.0,98,0.12,,,0.65,Wunderground v.1.15,2013-04-12 02:05:00,
2013-04-11 22:09:00,57.8,57.2,29.66,ESE,123,1.0,9.0,98,0.19,,,0.66,Wunderground v.1.15,2013-04-12 02:09:00,
2013-04-11 22:10:00,57.8,57.2,29.67,ESE,108,1.0,9.0,98,0.14,,,0.66,Wunderground v.1.15,2013-04-12 02:10:00,
2013-04-11 22:14:00,57.8,57.2,29.66,ESE,113,1.0,9.0,98,0.12,,,0.67,Wunderground v.1.15,2013-04-12 02:14:00,
2013-04-11 22:16:00,57.8,57.2,29.65,ESE,114,2.0,9.0,98,0.14,,,0.68,Wunderground v.1.15,2013-04-12 02:16:00,
2013-04-11 22:17:00,57.8,57.2,29.64,SE,124,2.0,9.0,98,0.14,,,0.68,Wunderground v.1.15,2013-04-12 02:17:00,
2013-04-11 22:19:00,57.7,57.1,29.63,SE,144,2.0,9.0,98,0.14,,,0.68,Wunderground v.1.15,2013-04-12 02:19:00,
2013-04-11 22:20:00,57.7,57.1,29.63,SSE,161,2.0,9.0,98,0.13,,,0.68,Wunderground v.1.15,2013-04-12 02:20:00,
2013-04-11 22:22:00,57.7,57.1,29.63,SE,142,2.0,9.0,98,0.10,,,0.69,Wunderground v.1.15,2013-04-12 02:22:00,
2013-04-11 22:24:00,57.7,57.1,29.63,ESE,123,2.0,9.0,98,0.10,,,0.69,Wunderground v.1.15,2013-04-12 02:24:00,
2013-04-11 22:25:00,57.7,57.1,29.63,SE,126,2.0,9.0,98,0.10,,,0.69,Wunderground v.1.15,2013-04-12 02:25:00,
2013-04-11 22:26:00,57.7,57.1,29.63,SE,126,2.0,9.0,98,0.10,,,0.69,Wunderground v.1.15,2013-04-12 02:26:00,
2013-04-11 22:30:00,57.7,57.1,29.63,South,187,1.0,9.0,98,0.07,,,0.69,Wunderground v.1.15,2013-04-12 02:30:00,
2013-04-11 22:32:00,57.6,57.0,29.63,SE,124,1.0,3.0,98,0.06,,,0.69,Wunderground v.1.15,2013-04-12 02:32:00,
2013-04-11 22:34:00,57.6,57.0,29.63,East,101,1.0,9.0,98,0.05,,,0.69,Wunderground v.1.15,2013-04-12 02:34:00,
2013-04-11 22:35:00,57.6,57.0,29.63,SE,146,1.0,9.0,98,0.04,,,0.69,Wunderground v.1.15,2013-04-12 02:35:00,
2013-04-11 22:38:00,57.6,57.0,29.63,SE,128,0.0,9.0,98,0.00,,,0.69,Wunderground v.1.15,2013-04-12 02:38:00,
2013-04-11 22:39:00,57.6,57.0,29.63,SE,144,0.0,9.0,98,0.00,,,0.69,Wunderground v.1.15,2013-04-12 02:39:00,
2013-04-11 22:42:00,57.6,57.0,29.63,SE,134,0.0,9.0,98,0.00,,,0.69,Wunderground v.1.15,2013-04-12 02:42:00,
2013-04-11 22:44:00,57.6,57.0,29.64,South,188,0.0,9.0,98,0.00,,,0.69,Wunderground v.1.15,2013-04-12 02:44:00,
2013-04-11 22:46:00,57.6,57.0,29.64,SE,138,0.0,9.0,98,0.00,,,0.69,Wunderground v.1.15,2013-04-12 02:46:00,
2013-04-11 22:48:00,57.6,57.0,29.63,ESE,117,0.0,9.0,98,0.00,,,0.69,Wunderground v.1.15,2013-04-12 02:48:00,
2013-04-11 22:51:00,57.6,57.0,29.63,SE,132,0.0,9.0,98,0.00,,,0.69,Wunderground v.1.15,2013-04-12 02:51:00,
2013-04-11 22:53:00,57.6,57.0,29.63,SE,132,0.0,9.0,98,0.00,,,0.69,Wunderground v.1.15,2013-04-12 02:53:00,
2013-04-11 22:54:00,57.5,56.9,29.63,SE,132,0.0,9.0,98,0.00,,,0.69,Wunderground v.1.15,2013-04-12 02:54:00,
2013-04-11 22:55:00,57.5,56.9,29.63,SE,132,0.0,9.0,98,0.00,,,0.69,Wunderground v.1.15,2013-04-12 02:55:00,
2013-04-11 22:58:00,57.5,56.9,29.63,SE,132,0.0,9.0,98,0.00,,,0.69,Wunderground v.1.15,2013-04-12 02:58:00,
2013-04-11 22:59:00,57.5,56.9,29.63,SE,132,0.0,9.0,98,0.00,,,0.69,Wunderground v.1.15,2013-04-12 02:59:00,
2013-04-11 23:04:00,57.5,56.9,29.63,SE,132,0.0,9.0,98,0.00,,,0.69,Wunderground v.1.15,2013-04-12 03:04:00,
2013-04-11 23:05:00,57.5,56.9,29.63,SE,132,0.0,9.0,98,0.00,,,0.69,Wunderground v.1.15,2013-04-12 03:05:00,
2013-04-11 23:06:00,57.5,56.9,29.63,SE,132,0.0,9.0,98,0.00,,,0.69,Wunderground v.1.15,2013-04-12 03:06:00,
2013-04-11 23:11:00,57.4,56.8,29.62,ESE,107,0.0,9.0,98,0.00,,,0.69,Wunderground v.1.15,2013-04-12 03:11:00,
2013-04-11 23:12:00,57.4,56.8,29.62,ESE,107,0.0,9.0,98,0.00,,,0.69,Wunderground v.1.15,2013-04-12 03:12:00,
2013-04-11 23:14:00,57.4,56.8,29.62,ESE,107,0.0,9.0,98,0.00,,,0.69,Wunderground v.1.15,2013-04-12 03:14:00,
2013-04-11 23:19:00,57.3,56.7,29.62,ESE,107,0.0,9.0,98,0.00,,,0.69,Wunderground v.1.15,2013-04-12 03:19:00,
2013-04-11 23:21:00,57.3,56.7,29.62,ESE,107,0.0,9.0,98,0.00,,,0.69,Wunderground v.1.15,2013-04-12 03:21:00,
2013-04-11 23:25:00,57.3,56.7,29.62,ESE,107,0.0,9.0,98,0.00,,,0.69,Wunderground v.1.15,2013-04-12 03:25:00,
2013-04-11 23:26:00,57.3,56.7,29.62,ESE,107,0.0,9.0,98,0.00,,,0.69,Wunderground v.1.15,2013-04-12 03:26:00,
2013-04-11 23:27:00,57.3,56.7,29.62,ESE,107,0.0,9.0,98,0.00,,,0.69,Wunderground v.1.15,2013-04-12 03:27:00,
2013-04-11 23:30:00,57.4,56.8,29.62,ESE,107,0.0,9.0,98,0.00,,,0.69,Wunderground v.1.15,2013-04-12 03:30:00,
2013-04-11 23:32:00,57.3,56.7,29.62,ESE,107,0.0,9.0,98,0.00,,,0.69,Wunderground v.1.15,2013-04-12 03:32:00,
2013-04-11 23:33:00,57.4,56.8,29.62,ESE,107,0.0,9.0,98,0.00,,,0.69,Wunderground v.1.15,2013-04-12 03:33:00,
2013-04-11 23:34:00,57.4,56.8,29.62,ESE,107,0.0,9.0,98,0.00,,,0.69,Wunderground v.1.15,2013-04-12 03:34:00,
2013-04-11 23:36:00,57.3,56.7,29.63,ESE,108,0.0,9.0,98,0.00,,,0.69,Wunderground v.1.15,2013-04-12 03:36:00,
2013-04-11 23:39:00,57.3,56.7,29.62,South,177,0.0,9.0,98,0.00,,,0.69,Wunderground v.1.15,2013-04-12 03:39:00,
2013-04-11 23:41:00,57.3,56.7,29.62,South,177,0.0,9.0,98,0.00,,,0.69,Wunderground v.1.15,2013-04-12 03:41:00,
2013-04-11 23:44:00,57.3,56.7,29.62,South,188,0.0,9.0,98,0.00,,,0.69,Wunderground v.1.15,2013-04-12 03:44:00,
2013-04-11 23:45:00,57.2,56.6,29.62,SW,219,0.0,9.0,98,0.00,,,0.69,Wunderground v.1.15,2013-04-12 03:45:00,
2013-04-11 23:46:00,57.2,56.6,29.62,SSW,198,0.0,9.0,98,0.00,,,0.69,Wunderground v.1.15,2013-04-12 03:46:00,
2013-04-11 23:51:00,57.3,56.7,29.61,South,184,1.0,1.0,98,0.00,,,0.69,Wunderground v.1.15,2013-04-12 03:51:00,
2013-04-11 23:52:00,57.3,56.7,29.61,South,184,1.0,9.0,98,0.00,,,0.69,Wunderground v.1.15,2013-04-12 03:52:00,
2013-04-11 23:55:00,57.3,56.7,29.60,South,184,1.0,9.0,98,0.00,,,0.69,Wunderground v.1.15,2013-04-12 03:55:00,
2013-04-11 23:56:00,57.3,56.7,29.60,South,184,1.0,9.0,98,0.00,,,0.69,Wunderground v.1.15,2013-04-12 03:56:00,
2013-04-11 23:58:00,57.3,56.7,29.60,South,184,0.0,9.0,98,0.00,,,0.69,Wunderground v.1.15,2013-04-12 03:58:00,
2013-04-11 23:59:00,57.3,56.7,29.60,South,184,0.0,9.0,98,0.00,,,0.69,Wunderground v.1.15,2013-04-12 03:59:00,